GFSFLT1_sfc_rhum_000.txt.gz
RH
26 24 22 25 30 36 34 28 29 36 34 37 29 30 28 28 26 26 31 30 37 40 37 43 44 42 40 38 45 40 37 36
21 23 24 30 39 36 32 32 37 30 26 26 24 26 25 26 26 33 36 34 36 40 36 39 41 41 44 49 47 49 46 40
23 25 28 30 33 33 31 28 29 27 24 28 31 34 28 30 28 32 30 33 32 32 37 37 38 38 44 47 51 50 47 44
22 26 30 32 34 32 29 30 31 33 30 26 26 27 27 27 28 26 29 33 32 34 36 39 42 40 38 42 44 48 45 44
21 23 28 31 37 36 32 32 30 31 34 32 38 31 32 33 33 30 31 32 33 32 35 40 43 40 42 41 34 43 45 45
29 30 30 31 35 38 36 33 32 33 32 37 34 38 36 34 34 35 32 29 32 33 39 44 45 42 44 51 53 52 49 50
31 31 30 32 36 40 38 33 32 35 36 37 44 47 44 38 34 33 30 31 31 36 40 45 47 47 48 48 54 58 57 58
31 31 30 34 38 39 35 34 32 35 39 38 39 39 40 38 37 34 38 35 35 40 47 47 42 46 47 48 53 56 64 68
32 31 32 35 38 39 38 36 34 33 36 34 32 38 38 36 38 39 40 41 42 48 48 46 47 48 50 54 63 64 62 64
32 31 33 36 39 40 44 40 33 34 37 39 42 43 43 44 45 44 41 46 41 48 51 47 42 46 48 53 60 68 67 68
31 30 35 38 38 42 43 42 39 40 40 41 41 43 43 44 44 46 47 48 50 47 45 44 45 49 58 61 64 65 65 62
32 33 33 34 39 40 41 43 44 42 40 42 43 45 43 43 45 47 49 50 46 43 44 48 53 67 76 78 67 57 47 47
32 34 36 38 42 42 42 44 41 43 42 42 43 44 42 44 48 50 54 55 54 52 61 72 71 71 60 55 53 45 42 40
32 35 38 41 40 42 48 52 49 43 41 40 41 48 48 52 56 60 64 68 70 74 69 68 68 62 56 47 40 39 41 42
39 45 43 43 48 51 55 50 48 46 44 42 46 52 61 67 71 63 59 55 54 50 47 48 50 43 39 37 35 40 41 38
46 46 46 43 44 46 48 49 47 50 48 44 49 48 45 44 45 44 43 42 36 34 35 36 38 36 30 48 39 41 42 43
51 54 48 39 39 45 51 43 46 53 48 47 42 43 40 39 40 39 36 34 33 35 36 38 40 30 76 72 67 48 43 41
61 54 37 39 42 53 43 40 46 50 44 40 42 43 37 37 32 30 32 36 39 41 40 42 45 44 65 67 69 49 46 45
45 38 35 38 43 41 40 38 43 44 42 40 42 39 36 32 32 33 36 37 39 40 43 44 44 38 62 67 68 56 54 52

GFSFLT1_sfc_rhum_003.txt.gz
RH
18 22 21 20 22 23 26 30 23 27 28 31 25 26 26 25 25 26 30 30 36 38 37 44 43 40 41 41 50 42 44 42
22 21 22 24 28 26 24 29 34 26 25 26 24 25 25 26 25 30 33 32 33 36 33 36 40 39 44 48 47 50 47 45
21 22 24 25 30 28 30 30 26 23 23 26 31 32 28 28 27 30 28 32 33 33 36 34 38 36 46 49 52 48 46 46
23 25 30 32 32 30 26 27 28 30 27 25 26 26 27 26 28 28 29 36 31 31 33 36 42 41 39 47 46 49 45 44
19 23 27 33 34 32 29 28 27 29 33 30 35 32 33 34 33 31 30 32 28 26 29 36 44 42 47 44 34 51 50 48
24 25 27 29 34 36 32 30 29 30 30 35 36 39 38 38 35 40 40 32 30 28 31 37 44 40 46 51 53 50 47 49
26 26 27 31 34 36 35 30 29 32 34 36 42 54 51 38 36 34 30 32 30 33 31 39 45 45 45 47 47 53 62 58
26 26 27 31 33 34 32 29 28 30 35 37 35 35 36 36 35 35 37 34 34 39 42 45 41 42 42 49 65 69 74 80
30 29 30 30 32 33 36 34 32 28 32 33 33 34 34 34 37 37 38 39 40 40 42 44 43 43 54 58 55 60 62 66
29 28 29 33 33 34 38 36 33 34 36 36 37 37 39 40 42 42 39 43 36 40 42 42 51 51 60 62 64 68 69 70
27 26 29 31 31 34 36 38 36 35 35 35 34 38 39 38 39 41 42 42 42 46 51 54 58 61 62 68 64 64 66 63
27 28 31 30 30 33 36 36 40 36 34 37 41 39 38 38 38 41 47 52 50 59 63 65 67 70 73 73 63 60 65 65
28 28 31 34 37 36 36 40 42 40 39 38 36 36 37 38 41 47 51 55 58 61 67 67 71 75 72 69 66 53 50 50
34 35 34 35 38 40 43 45 46 45 39 35 34 37 38 43 45 47 49 48 47 47 47 52 48 49 44 41 40 45 45 44
40 40 39 40 43 48 43 43 46 44 38 36 37 40 40 39 40 40 39 37 35 33 32 33 34 32 30 32 33 38 37 34
45 42 40 40 37 36 36 45 46 41 42 39 41 37 36 34 35 36 35 33 30 28 31 32 33 31 32 48 44 46 44 42
52 41 38 37 33 33 34 41 37 38 44 39 37 36 36 36 35 34 31 30 29 32 33 34 36 27 73 68 64 50 45 43
46 41 34 32 28 29 33 32 34 40 39 36 34 37 41 36 32 27 28 31 34 36 36 35 39 40 63 65 70 52 50 48
40 34 29 24 23 25 30 30 31 32 34 34 33 41 41 36 32 29 31 33 36 37 39 40 44 40 68 68 67 54 53 50

GFSFLT1_sfc_rhum_006.txt.gz
RH
19 20 23 27 29 32 41 59 60 54 47 49 45 46 48 48 50 50 51 51 55 61 61 68 70 66 66 69 74 66 66 63
29 32 35 34 38 33 47 53 56 46 46 48 50 53 48 51 46 49 48 53 54 60 60 60 61 62 66 65 65 65 60 67
27 33 38 46 45 48 55 46 41 39 40 48 50 50 49 47 49 52 51 55 52 44 58 57 60 63 66 70 73 67 62 62
30 35 44 47 46 45 37 38 41 49 48 39 44 47 46 48 47 48 49 49 46 50 54 58 63 64 64 67 68 68 69 62
25 34 41 45 48 49 41 40 38 42 47 49 50 49 52 53 58 55 54 53 53 46 51 60 65 68 67 70 54 74 74 72
30 33 36 39 48 52 48 41 38 40 44 48 53 60 62 62 64 61 55 57 54 50 52 60 67 65 67 72 71 78 79 83
30 32 36 40 48 50 48 41 36 40 46 52 57 57 58 57 57 59 55 55 54 56 53 63 66 67 66 73 83 80 87 86
32 31 33 38 44 45 45 43 40 42 45 46 50 53 57 57 58 60 58 57 60 59 62 63 64 65 67 67 74 79 78 88
34 34 37 38 42 44 46 44 41 41 50 50 53 56 53 54 59 58 62 63 63 60 62 61 66 69 74 73 78 78 82 88
31 32 37 38 41 45 50 46 44 45 52 57 56 56 59 59 58 60 62 63 51 61 70 67 67 72 75 78 81 80 82 86
34 33 39 39 41 49 55 50 46 46 48 55 51 53 54 55 57 60 65 62 59 63 69 72 71 72 71 72 79 77 78 83
35 35 37 38 42 43 51 50 48 50 48 52 56 55 54 55 58 63 63 65 63 63 60 64 66 68 82 85 82 74 69 69
37 40 42 41 45 46 47 53 53 52 52 52 49 51 50 53 58 57 60 60 63 59 60 60 63 65 74 78 79 73 70 70
38 42 42 40 41 46 46 50 51 51 47 47 46 50 51 54 54 54 56 57 56 54 48 49 46 49 48 49 50 53 54 53
44 46 44 41 42 42 42 44 55 53 48 46 50 54 51 51 52 51 53 52 48 46 46 47 50 43 39 49 48 56 58 52
47 49 44 41 41 38 36 38 44 51 52 50 55 51 48 49 53 51 52 51 44 45 44 48 50 44 47 64 59 60 60 58
44 43 39 36 35 32 30 33 37 46 41 48 45 48 46 53 55 54 51 49 46 48 51 51 54 35 72 70 70 71 62 61
46 39 34 31 28 27 28 29 30 39 40 40 50 69 64 63 52 45 43 50 53 56 56 55 58 60 72 71 71 67 66 62
39 30 29 29 27 25 27 24 26 29 32 43 56 61 59 53 55 53 49 51 55 56 60 59 63 53 70 71 74 74 70 67

GFSFLT1_sfc_rhum_009.txt.gz
RH
36 40 38 43 63 79 78 88 81 61 61 58 63 57 58 59 59 57 59 60 60 61 61 62 65 69 73 70 74 71 77 72
47 50 56 65 64 69 76 81 68 67 61 67 62 55 56 60 53 58 56 52 52 56 61 66 70 69 72 70 77 72 67 75
46 47 47 56 67 69 67 65 65 59 57 62 58 58 57 57 55 57 59 60 57 51 63 67 69 70 70 70 73 79 78 78
50 51 56 54 67 55 50 48 48 53 56 47 49 52 55 58 62 62 59 65 58 55 61 67 72 73 72 73 78 76 84 81
46 52 57 58 61 53 49 47 44 44 51 55 56 62 68 71 73 69 70 59 56 56 58 65 73 74 73 80 68 84 88 91
50 53 54 57 55 54 54 48 44 45 47 53 65 65 68 69 72 66 62 62 59 58 62 66 71 77 75 85 88 88 91 91
48 51 50 54 54 52 46 46 47 48 51 58 58 57 64 69 68 68 66 65 67 61 61 68 72 77 84 85 89 88 90 86
47 46 50 55 57 56 54 52 48 53 54 57 62 63 64 68 67 66 62 66 68 75 75 77 80 80 83 84 87 88 91 94
44 43 46 46 43 49 55 50 49 54 65 62 63 64 68 61 57 58 70 78 77 75 81 80 80 80 85 86 90 87 81 88
39 41 43 46 51 60 63 58 58 57 57 62 62 64 59 60 57 74 79 76 60 78 81 80 80 83 77 76 80 82 90 92
47 49 55 57 58 67 67 62 61 60 59 62 57 60 57 61 73 72 72 72 72 72 72 74 76 78 83 89 94 91 89 89
56 56 54 57 60 64 66 64 62 63 59 56 56 58 60 66 68 68 67 66 64 68 71 74 75 77 80 89 92 89 90 84
56 56 55 54 58 57 56 60 65 63 60 62 57 59 54 59 60 61 61 61 66 67 66 58 58 58 61 66 76 76 69 68
60 60 58 54 52 53 55 58 63 59 59 60 60 56 56 57 54 59 59 58 56 53 52 56 57 60 59 60 65 69 70 67
59 60 60 55 52 52 51 49 55 64 63 65 70 74 62 60 60 58 53 52 50 50 50 53 58 57 60 62 61 70 71 66
55 56 56 50 49 45 39 42 48 47 65 63 68 74 70 79 78 64 60 55 51 49 50 55 58 56 56 76 72 75 75 74
53 52 47 41 36 35 36 40 42 42 38 38 62 77 81 80 78 73 64 54 50 52 56 60 65 52 74 70 73 80 74 72
54 50 41 38 37 38 40 38 39 40 38 48 71 77 78 80 78 70 61 57 56 60 66 64 68 75 76 71 72 78 80 78
50 47 37 36 35 36 37 35 37 42 56 58 67 74 76 79 82 65 62 61 59 68 72 77 78 64 74 80 86 90 85 82

GFSFLT1_sfc_rhum_012.txt.gz
RH
70 75 76 82 86 93 92 90 85 81 81 81 74 65 64 65 63 61 56 57 57 62 64 70 72 71 73 74 73 73 77 82
63 70 78 81 89 88 82 70 71 73 68 80 72 67 59 62 60 59 60 61 64 66 72 73 76 72 73 71 75 78 76 81
54 61 66 71 76 84 75 65 61 59 71 74 75 65 56 56 57 58 67 65 59 53 68 70 76 73 71 72 79 83 84 82
56 60 72 76 78 66 53 52 53 56 54 50 53 55 59 64 69 68 59 58 60 63 66 72 74 75 76 78 83 84 90 90
53 56 64 65 63 58 52 48 48 50 53 55 57 65 68 74 80 71 62 63 63 62 67 72 77 82 84 88 82 92 90 92
58 59 58 58 58 58 55 51 50 51 53 56 65 64 74 79 72 66 62 65 63 60 66 68 74 80 85 87 94 93 95 95
61 60 56 57 59 56 55 54 56 55 58 65 66 68 70 70 66 62 63 69 73 71 68 82 84 88 89 91 92 90 92 85
60 57 58 59 58 61 58 56 62 67 66 67 68 68 67 57 58 62 76 72 74 79 82 85 87 87 87 87 88 88 87 82
58 59 58 59 63 65 60 55 56 62 64 63 63 63 64 62 60 71 77 79 81 84 84 79 78 81 86 88 91 93 90 95
57 60 61 64 65 69 63 59 63 60 61 63 64 62 61 63 72 78 79 78 71 75 77 77 77 80 84 87 92 91 93 93
59 61 64 69 72 70 64 61 63 62 61 64 59 62 66 72 75 75 75 74 70 70 68 72 77 80 84 89 92 90 92 95
63 61 62 64 60 57 62 65 67 68 66 65 66 64 65 74 73 72 72 70 70 66 71 72 68 69 69 76 82 87 78 73
60 63 60 59 58 57 58 59 63 69 69 70 69 67 64 64 72 73 72 68 66 65 63 57 58 59 62 65 70 70 71 71
64 63 61 57 56 55 53 50 54 62 66 72 71 71 71 69 68 70 67 69 66 69 55 53 55 61 63 67 70 72 72 72
60 59 60 57 54 47 42 46 51 52 53 65 71 72 82 76 76 75 76 77 78 72 54 54 61 62 64 65 67 73 74 70
56 57 59 55 43 41 43 45 45 48 47 52 80 82 80 81 79 82 81 83 81 57 55 58 64 66 61 76 72 74 76 77
58 55 53 43 40 41 40 41 43 47 48 70 72 77 80 84 86 86 90 87 56 58 61 66 68 57 76 72 75 83 77 76
55 55 43 40 40 38 37 38 42 46 58 65 70 81 80 87 90 92 92 79 74 66 71 74 77 75 77 76 79 81 86 85
51 40 37 38 37 35 38 38 42 48 64 66 68 76 77 83 88 89 94 95 67 75 83 80 78 70 80 78 81 93 91 88

GFSFLT1_sfc_rhum_015.txt.gz
RH
92 94 92 87 89 92 92 92 91 87 90 79 76 64 69 70 68 65 63 67 66 70 70 79 77 74 75 74 73 75 78 82
81 84 90 86 88 87 86 88 86 79 75 80 78 90 84 77 67 64 66 60 63 69 72 76 76 72 73 74 79 82 79 84
70 76 81 89 87 82 76 76 70 69 81 89 91 83 68 66 64 65 63 65 63 61 72 75 76 78 79 81 86 89 90 91
72 76 79 80 70 63 56 57 57 66 73 70 59 58 64 72 74 64 64 66 68 71 75 80 84 86 89 94 93 94 97 93
64 65 64 63 65 59 54 52 54 54 56 59 60 65 68 82 80 69 71 73 74 73 75 80 85 90 87 87 88 95 96 98
62 62 60 60 61 61 60 58 59 58 62 67 74 70 81 78 72 68 74 73 69 75 74 74 79 87 87 88 90 94 95 96
65 63 61 64 67 67 69 69 71 70 68 69 72 72 70 68 64 63 70 75 84 78 75 82 85 89 88 91 90 87 90 92
68 59 59 68 74 72 68 66 65 65 66 66 66 66 65 62 60 66 78 86 91 85 82 81 82 86 87 89 89 90 91 94
60 64 70 73 71 67 64 59 61 60 61 61 63 64 69 68 66 75 84 86 84 86 82 77 76 79 84 89 92 92 91 94
68 70 72 72 72 71 69 66 63 62 62 65 65 69 72 74 73 82 85 83 76 83 81 76 76 79 84 88 94 93 92 94
69 72 74 72 69 69 68 66 64 64 67 70 68 69 70 75 80 82 82 80 71 70 72 73 73 74 80 84 85 88 93 94
67 64 63 63 60 58 63 64 67 73 76 76 78 79 74 74 81 81 77 74 75 76 74 71 70 63 66 69 72 80 79 74
61 60 57 54 57 58 56 56 58 62 66 70 72 75 73 76 76 78 76 74 76 70 73 73 65 62 64 66 70 72 73 73
63 58 57 58 56 50 47 50 50 53 54 62 66 74 80 86 75 73 76 75 74 83 82 80 66 63 62 67 71 72 71 74
60 58 57 53 49 45 46 46 48 47 48 59 71 77 79 77 79 78 80 82 90 87 87 72 65 64 66 66 67 71 76 73
58 59 55 52 44 45 43 43 45 46 48 62 74 81 83 84 86 89 88 86 88 94 69 67 68 69 62 72 71 77 79 79
54 55 55 45 42 40 39 40 43 48 50 66 72 79 83 85 90 92 92 94 87 74 76 72 72 60 75 74 83 89 81 81
56 58 49 43 42 40 38 39 43 48 52 68 72 77 82 82 87 92 93 94 94 80 79 79 76 76 79 78 82 90 92 91
55 47 40 42 41 38 41 40 45 50 59 70 72 74 79 81 86 91 93 94 94 84 82 78 82 78 69 72 82 90 90 85

GFSFLT1_sfc_rhum_021.txt.gz
RH
85 88 87 84 79 82 87 91 96 98 96 86 69 73 66 67 78 66 53 51 58 53 54 57 51 49 50 48 51 46 49 52
85 86 85 85 84 83 88 96 94 91 74 68 58 76 82 62 49 53 52 51 53 55 51 52 52 51 58 60 53 55 44 54
85 80 80 79 83 86 81 77 78 60 52 59 63 62 54 48 49 55 53 55 52 51 54 53 55 50 60 62 61 50 50 58
83 79 78 76 79 78 68 57 56 55 59 54 52 56 55 50 47 47 52 52 48 53 57 56 57 55 56 62 61 60 48 50
67 58 59 62 61 59 54 52 50 52 52 53 59 52 54 54 50 49 46 54 53 51 55 60 62 58 60 55 50 54 51 46
51 49 49 50 53 54 56 56 54 56 56 58 53 55 52 50 51 55 55 55 56 56 60 62 60 54 58 57 57 54 50 47
50 52 52 52 56 60 59 52 50 49 49 51 52 52 51 47 51 52 52 53 55 63 62 60 59 56 58 56 59 57 53 52
53 51 49 56 59 57 53 47 49 50 51 49 50 50 51 52 52 52 56 54 56 59 67 64 52 57 58 58 57 56 54 51
54 54 57 56 56 52 50 46 47 48 51 52 54 56 53 53 57 56 56 60 62 65 67 59 56 58 57 60 59 59 62 60
56 59 57 54 53 56 54 46 47 52 57 58 59 58 57 54 54 59 59 61 56 64 67 60 59 58 57 58 58 61 61 59
59 56 59 55 53 58 56 51 56 64 56 57 51 50 49 50 53 50 52 54 56 62 64 60 59 60 62 58 58 56 58 54
58 56 53 50 51 52 52 57 54 45 41 45 42 43 48 52 51 50 49 55 52 59 61 62 61 66 65 64 57 53 54 55
56 53 50 48 49 51 50 50 40 39 38 38 40 45 46 48 49 50 54 56 60 62 62 61 61 72 66 61 53 53 55 55
55 52 49 48 56 49 39 41 38 34 33 34 36 41 47 51 54 56 57 60 64 66 62 64 73 73 56 53 55 54 52 54
52 50 46 52 51 39 42 40 38 33 31 31 38 47 53 57 60 62 63 64 69 69 71 75 74 57 54 53 52 55 58 58
53 50 49 47 46 43 41 38 36 36 36 36 43 49 58 60 64 63 65 68 69 71 71 67 65 57 49 59 61 62 60 57
50 48 48 47 45 40 39 36 35 37 38 41 45 53 57 60 61 66 66 67 67 74 69 61 59 53 79 76 71 55 51 47
49 48 45 46 44 41 36 32 35 39 42 42 46 58 60 60 59 61 62 64 72 76 64 57 61 59 65 67 68 54 51 50
46 43 44 38 37 34 35 32 37 42 43 45 53 58 59 58 63 62 61 62 70 70 62 61 58 49 64 65 66 52 53 50

GFSFLT1_sfc_rhum_027.txt.gz
RH
34 29 27 27 36 52 59 69 71 78 90 81 69 63 57 56 54 45 44 43 45 41 43 46 44 41 42 45 50 42 39 34
40 37 37 38 53 64 70 78 69 67 57 54 52 53 47 44 38 41 42 40 40 41 38 41 43 42 44 47 45 44 36 34
42 44 45 46 65 68 64 63 65 62 61 56 44 44 40 36 37 42 39 40 38 36 45 41 41 38 40 39 44 43 38 36
45 47 60 62 69 75 62 61 66 54 41 37 38 40 41 37 38 37 39 39 35 36 38 39 40 38 36 41 42 46 42 39
42 46 66 71 71 70 65 64 42 38 39 36 41 35 40 39 38 37 34 39 36 31 32 38 42 41 44 42 35 44 46 43
42 42 49 58 68 64 45 40 36 39 36 38 39 39 40 35 34 35 32 33 31 30 34 38 44 42 44 46 47 48 45 47
35 38 40 45 49 44 43 38 36 38 38 40 42 40 32 29 32 31 27 28 28 28 28 36 38 39 43 43 45 51 55 52
34 36 36 42 44 44 40 36 37 38 39 35 34 35 34 45 34 28 29 26 26 29 33 35 34 38 40 42 53 60 51 50
32 32 33 36 40 40 36 36 37 35 32 31 34 32 34 28 27 27 29 29 28 31 33 34 36 39 40 53 54 49 58 60
31 30 32 35 38 41 40 37 33 30 35 38 37 46 35 27 28 32 28 29 25 30 35 36 35 37 41 48 50 53 52 56
30 30 35 36 37 41 42 35 30 35 34 40 36 41 29 27 31 31 29 31 32 35 36 36 38 39 39 42 45 48 53 58
30 31 34 36 37 40 37 33 34 35 33 34 45 35 28 29 30 30 30 33 34 34 34 36 36 36 37 46 59 60 58 58
29 32 34 36 38 37 38 37 34 33 32 45 38 28 25 28 29 28 31 34 36 35 34 35 35 35 41 58 53 61 62 54
28 32 35 37 38 36 38 36 34 34 37 37 26 26 26 28 29 29 32 34 36 36 35 37 37 40 41 48 55 53 50 51
29 32 35 36 36 35 37 35 39 37 38 26 24 25 28 31 29 30 34 35 37 37 37 37 41 41 41 44 44 50 54 49
32 34 35 35 35 36 33 35 41 39 34 25 25 27 30 31 31 34 37 39 37 37 37 38 44 44 42 52 47 48 48 45
31 33 34 35 34 35 32 37 37 42 30 28 26 29 30 31 32 39 40 37 35 37 38 40 49 40 76 70 64 48 43 38
30 32 34 34 34 36 34 35 43 36 28 25 27 30 31 32 31 31 33 36 40 42 42 43 51 50 67 62 63 47 44 41
28 30 33 33 32 32 35 37 31 29 27 26 28 28 28 30 32 33 35 38 41 42 43 47 49 50 67 62 64 51 44 45

GFSFLT1_sfc_rhum_030.txt.gz
RH
30 28 30 34 52 62 66 75 83 82 90 80 75 75 72 72 70 65 64 61 60 63 68 65 64 66 66 70 72 67 64 60
34 36 38 44 62 70 72 80 79 77 75 73 72 74 67 66 59 58 56 58 54 62 66 64 64 64 65 59 62 65 66 63
43 41 46 60 68 79 82 75 74 73 65 64 65 63 62 59 58 58 56 54 53 57 62 60 60 61 62 66 67 70 67 65
44 46 53 73 71 77 80 78 73 73 66 63 58 58 59 57 59 59 56 52 48 50 52 58 62 63 67 69 67 66 70 66
41 46 60 68 72 73 68 69 67 66 65 54 59 54 54 58 60 58 55 52 47 43 46 54 61 67 68 69 55 70 69 72
42 59 68 71 72 74 70 67 65 52 50 54 59 59 62 57 58 54 47 49 49 42 49 61 62 64 66 68 69 67 70 73
39 60 64 64 72 72 75 66 48 51 50 54 60 60 53 53 53 52 50 50 48 51 49 56 58 60 62 66 68 64 73 73
43 48 58 65 69 60 55 46 46 51 56 54 53 51 56 55 53 50 47 47 50 53 51 55 57 57 61 64 69 73 77 77
43 45 48 53 53 53 50 44 45 48 51 48 51 52 52 49 49 42 48 47 48 48 50 54 54 55 59 63 70 75 76 80
38 39 45 49 50 53 53 44 43 45 47 51 54 50 46 48 42 45 50 46 38 52 54 54 55 57 60 63 69 73 75 79
35 34 42 43 46 52 56 49 44 43 48 55 51 50 46 42 45 50 45 46 45 50 52 53 54 56 57 60 72 75 76 81
35 34 36 40 45 47 51 47 40 44 45 52 54 49 49 44 48 48 47 47 47 49 49 50 50 52 55 62 66 64 70 81
33 33 36 40 44 45 48 48 42 44 47 46 48 50 45 44 45 46 47 48 49 49 49 48 49 50 56 60 66 67 68 69
32 33 36 40 42 46 47 48 46 43 39 40 43 47 43 42 44 44 44 48 50 50 48 52 52 54 54 58 60 63 68 68
29 32 36 39 43 45 44 49 48 41 40 40 46 47 45 42 43 44 47 48 50 51 52 54 56 52 52 53 53 62 67 60
28 32 38 40 44 45 43 47 46 47 45 43 45 48 38 41 46 47 49 53 50 51 52 55 55 52 47 64 57 62 66 62
26 30 33 40 42 42 44 44 47 48 47 49 42 41 40 45 47 50 53 56 52 51 53 54 58 44 78 71 64 65 61 60
25 30 34 38 45 50 48 41 47 48 50 43 43 38 41 45 41 42 45 51 55 57 58 57 61 72 77 68 65 60 66 67
27 28 33 37 41 48 48 36 45 52 46 39 39 39 37 37 43 47 52 53 57 60 60 59 64 62 77 69 65 66 70 66

GFSFLT1_sfc_rhum_033.txt.gz
RH
41 42 46 54 59 59 81 85 91 96 95 96 96 90 92 91 87 80 72 70 70 74 72 72 72 73 69 69 70 73 70 70
36 41 51 61 66 82 89 87 94 93 96 97 87 83 86 85 77 73 71 62 66 71 74 69 67 67 64 68 69 68 71 74
46 61 61 67 75 84 91 87 86 92 91 90 74 80 80 74 68 68 64 64 65 60 65 65 63 66 70 72 70 76 75 73
55 66 77 84 89 89 86 87 83 86 88 74 75 75 72 74 72 71 64 60 55 61 62 64 67 70 72 74 75 70 74 72
53 75 86 92 95 94 89 83 81 82 87 80 69 65 64 73 77 71 61 57 52 47 57 68 72 74 71 76 66 74 72 76
57 75 85 88 90 94 92 88 84 80 78 74 62 75 72 72 69 68 69 64 54 53 59 59 61 68 68 70 74 79 80 80
70 77 81 87 94 93 92 86 85 79 61 67 68 65 62 60 60 58 60 60 62 54 51 58 58 61 65 70 72 80 80 78
82 85 86 89 93 92 90 85 67 65 63 57 56 59 59 57 58 61 49 52 57 53 53 57 60 61 62 67 74 77 79 83
80 81 80 85 89 90 83 63 65 62 57 54 58 56 62 60 57 54 53 53 52 51 55 56 55 58 62 64 72 78 85 88
66 74 79 81 76 70 65 61 60 59 58 60 61 59 55 53 52 52 54 51 44 53 55 54 55 58 59 60 79 82 81 86
58 61 69 66 67 68 68 62 60 59 59 62 55 50 50 49 52 48 47 48 49 52 52 52 53 55 60 68 76 72 80 90
51 54 59 60 62 65 65 64 59 60 62 60 58 54 50 48 46 48 48 48 50 51 54 54 50 54 60 65 69 70 76 81
46 47 53 56 58 60 64 66 56 57 60 59 55 54 48 46 48 51 53 51 54 55 56 52 52 55 61 69 69 69 72 78
43 44 48 53 55 59 60 65 54 53 52 51 55 49 47 49 46 48 49 53 54 58 55 54 55 59 59 64 66 66 71 73
43 41 45 48 51 56 58 59 52 48 46 50 52 53 53 44 50 48 48 50 54 56 54 54 59 62 57 58 62 68 69 66
44 45 47 50 52 59 61 59 50 45 46 46 55 56 48 52 52 52 54 58 55 52 52 55 61 61 55 66 60 65 64 64
33 41 57 58 62 66 61 55 51 49 50 54 54 55 50 55 51 48 51 54 58 56 57 61 61 49 79 72 66 64 59 63
32 35 43 57 63 65 64 57 62 61 63 56 57 61 55 51 45 45 50 52 54 60 61 62 65 71 78 74 70 61 63 69
35 39 41 51 71 76 63 59 59 62 58 50 48 50 49 52 48 53 58 62 65 66 66 64 73 68 80 78 72 66 69 74

GFSFLT1_sfc_rhum_036.txt.gz
RH
70 70 66 66 66 66 84 83 93 92 95 97 96 94 95 94 88 84 78 79 78 78 80 79 74 68 70 69 69 71 73 73
57 58 63 64 66 84 88 91 96 87 95 97 97 96 96 94 86 78 76 74 76 76 73 70 68 67 72 67 71 68 76 73
55 58 61 64 71 83 90 86 92 87 88 96 86 88 90 86 81 80 72 72 70 68 69 67 66 72 72 72 73 80 78 76
55 60 68 66 90 93 87 89 88 89 91 90 82 76 81 79 80 77 71 68 64 65 65 68 72 73 74 78 77 70 74 77
62 66 77 81 92 92 89 88 88 86 92 86 73 69 75 79 79 75 68 63 63 63 68 75 76 74 70 74 73 79 80 78
76 75 82 83 95 96 95 90 92 84 86 89 76 78 75 82 81 72 71 70 63 59 62 63 66 71 69 67 69 79 88 84
84 86 90 90 93 95 95 95 91 92 91 89 75 74 77 77 80 78 78 66 66 58 57 61 63 63 63 68 74 82 83 83
94 94 94 94 96 96 96 94 93 93 88 86 77 71 70 70 67 72 64 63 59 57 57 59 58 60 64 65 70 78 85 89
89 92 93 94 95 95 94 94 86 74 70 73 69 57 57 64 60 52 60 57 57 55 57 57 57 59 60 63 79 87 87 90
91 89 89 93 95 94 93 79 70 62 61 62 58 60 60 61 66 67 61 59 52 58 55 57 56 57 58 69 84 79 84 90
92 88 91 90 90 88 80 70 63 61 62 62 60 63 61 60 58 59 50 52 55 55 54 53 55 54 60 72 79 73 82 89
85 84 83 79 76 74 70 65 62 60 57 60 60 51 52 54 52 54 52 53 52 50 56 59 53 53 59 76 74 75 76 82
70 75 78 75 70 66 68 63 60 56 57 55 54 58 66 56 53 56 53 51 55 59 60 60 56 57 62 69 74 71 71 75
58 64 72 71 66 64 65 64 60 60 60 57 55 52 48 49 53 54 54 57 58 62 63 59 58 61 65 72 71 73 74 76
52 54 60 64 63 62 65 70 64 60 54 50 48 48 50 52 62 54 55 58 62 61 60 60 63 62 65 64 66 73 74 67
57 55 58 60 68 63 64 71 68 63 59 60 71 71 58 62 61 59 63 61 59 58 60 62 62 62 59 67 65 70 69 65
41 52 56 62 67 78 75 71 73 66 62 68 68 65 63 61 63 60 60 57 57 60 61 64 66 56 69 79 72 70 62 62
42 45 63 68 73 76 78 70 70 71 68 67 66 61 62 63 58 55 58 63 67 68 67 68 71 72 82 80 74 66 66 66
47 55 59 72 83 79 75 71 74 69 62 60 61 58 58 61 65 65 73 74 70 71 70 69 73 74 83 80 77 68 68 69

GFSFLT1_sfc_rhum_039.txt.gz
RH
75 80 79 79 86 81 91 92 96 95 95 97 98 92 94 95 93 89 83 82 78 80 81 78 71 71 71 69 69 78 77 74
78 78 80 84 84 90 92 95 96 90 94 96 97 95 96 94 87 82 81 82 78 77 76 72 70 70 71 68 74 73 77 78
80 81 83 81 80 86 94 91 94 89 85 96 92 94 95 92 87 85 79 81 73 68 71 69 72 77 75 74 74 83 78 77
78 79 78 79 79 85 91 91 91 88 93 91 92 89 89 88 90 86 79 75 70 69 70 75 76 78 79 80 76 69 75 78
66 70 74 76 79 82 86 90 91 90 90 88 86 86 84 86 87 82 76 74 71 69 72 79 79 76 75 77 75 82 81 79
61 65 70 73 81 90 92 93 93 86 88 88 83 86 84 86 84 78 76 73 71 73 70 67 68 73 66 66 72 80 89 87
62 65 76 82 94 96 97 94 91 87 90 94 85 83 82 86 85 83 81 74 70 64 61 63 64 64 63 70 81 82 83 87
89 91 90 91 96 96 96 95 95 94 92 95 90 91 82 82 76 78 73 71 66 64 62 63 66 65 63 64 71 75 80 88
93 91 90 92 94 93 96 94 93 97 96 96 91 88 85 91 82 76 64 60 59 58 63 64 66 60 60 63 74 84 89 90
92 94 93 93 94 92 94 95 95 94 89 87 81 79 78 86 75 67 60 60 54 58 63 62 60 60 58 64 80 82 81 89
96 96 96 95 95 94 95 95 90 78 75 75 73 78 75 73 68 63 57 57 55 63 59 58 59 60 61 72 84 78 84 89
93 93 93 94 95 96 96 89 78 67 65 71 67 70 63 62 60 54 51 56 55 54 56 57 61 60 66 77 81 77 78 82
89 90 91 92 94 93 92 83 72 62 68 70 72 72 67 58 54 50 55 57 62 56 62 64 62 60 64 76 77 73 80 81
87 92 92 88 85 85 82 80 73 73 67 72 72 65 55 51 58 61 63 64 63 62 65 64 62 65 66 70 76 79 80 79
76 83 89 85 80 81 78 81 80 74 69 66 68 73 65 68 65 66 66 66 64 66 64 65 65 62 62 68 72 78 81 80
66 68 74 79 87 88 85 90 86 74 70 70 75 74 64 68 71 72 72 70 67 62 62 64 65 63 59 72 71 79 82 75
51 61 61 63 72 81 85 87 84 76 75 79 74 71 70 70 70 72 72 66 63 68 77 74 68 61 70 80 79 81 75 72
51 53 66 69 78 84 89 84 76 75 81 79 74 70 70 68 62 64 66 72 82 90 83 71 70 74 79 80 84 78 76 72
69 75 81 91 90 85 79 75 77 77 78 74 71 67 67 65 65 72 82 94 94 82 77 73 77 74 82 83 85 75 74 71

GFSFLT1_sfc_rhum_042.txt.gz
RH
79 84 87 92 93 92 93 96 96 96 98 98 98 98 98 93 89 92 87 85 80 84 84 81 75 73 76 71 73 80 75 73
81 85 88 93 94 94 94 96 97 96 98 98 99 98 92 86 83 87 86 83 80 81 78 73 74 71 71 71 77 74 74 78
87 90 92 93 92 91 95 94 97 94 89 96 94 96 95 81 81 86 86 81 80 75 74 74 76 78 76 74 75 82 82 80
89 91 91 92 93 92 94 94 95 92 92 91 96 93 91 86 94 93 85 81 74 73 74 78 79 79 80 80 77 75 78 80
85 87 91 92 92 92 93 94 94 92 92 84 88 86 95 92 86 82 84 79 75 72 76 79 82 83 80 80 76 80 80 76
80 84 84 86 93 94 96 96 94 90 90 84 86 92 91 91 91 85 86 83 78 76 80 74 75 76 74 72 76 80 85 84
71 76 81 89 94 95 96 96 95 91 91 94 90 93 93 93 95 90 86 83 81 75 68 72 72 72 69 71 80 80 86 84
74 79 87 91 93 95 96 95 95 93 94 94 95 94 89 88 89 89 85 78 75 70 66 70 71 72 68 74 68 67 82 87
71 71 84 89 91 95 96 94 92 95 95 94 96 89 89 89 88 87 77 67 66 65 64 68 74 79 79 65 70 77 87 90
76 84 87 93 94 94 94 95 94 95 94 94 92 90 91 93 90 87 79 72 62 62 67 75 88 77 64 66 74 80 83 88
94 94 94 94 92 92 94 94 93 93 96 96 96 95 94 94 90 81 72 68 58 66 71 82 69 64 64 67 72 79 84 88
96 96 94 92 92 94 95 96 95 98 95 95 96 94 90 91 84 81 73 65 61 68 76 65 65 66 66 68 74 82 81 86
94 95 97 97 96 95 96 95 96 95 92 89 94 92 87 86 83 72 67 68 67 64 64 66 64 64 66 71 77 73 82 85
92 96 96 96 96 96 96 96 96 93 91 89 90 88 81 82 77 75 64 66 71 75 68 70 71 73 68 70 74 78 81 83
85 93 95 95 94 96 96 96 93 92 86 87 87 84 80 78 71 67 72 70 69 71 74 71 69 65 69 68 68 75 83 82
78 80 86 92 92 93 93 92 93 92 89 88 86 85 78 78 73 77 76 77 72 68 76 86 87 77 65 72 70 79 83 86
59 65 69 72 82 91 93 93 93 84 84 85 81 79 74 75 76 72 73 78 84 86 90 92 91 81 80 78 82 85 84 85
72 80 91 93 92 87 92 94 89 88 88 82 77 73 72 73 69 72 79 84 92 97 94 93 90 80 79 82 86 91 87 85
74 82 90 94 92 90 87 85 88 88 85 78 73 71 70 69 75 84 93 96 96 96 92 85 81 74 80 84 88 92 86 82

GFSFLT1_sfc_rhum_045.txt.gz
RH
66 69 64 63 66 70 69 74 81 83 82 80 74 80 84 83 80 72 70 62 65 62 61 66 63 64 53 49 53 50 45 44
62 68 70 66 68 73 73 80 82 79 77 82 78 78 82 74 70 73 72 63 63 66 61 62 57 52 52 56 54 53 47 50
66 69 71 72 69 71 74 75 78 78 70 76 69 72 73 66 76 82 79 70 64 66 63 56 54 52 58 58 56 52 50 52
69 72 73 72 72 71 72 72 74 78 74 70 72 72 71 69 72 74 70 68 65 66 61 56 58 54 55 58 56 51 44 54
62 69 71 71 75 74 72 74 75 76 78 71 73 67 70 69 77 71 72 70 65 60 58 60 60 57 59 56 50 52 54 48
59 63 66 68 74 82 78 77 76 76 77 73 72 70 70 74 77 74 72 72 65 60 60 62 62 56 57 55 59 58 69 74
56 57 62 69 79 84 84 81 78 77 79 79 77 79 80 79 81 79 76 67 61 63 57 60 58 54 55 53 58 68 73 64
53 60 70 70 79 81 81 78 79 80 83 82 81 79 76 74 76 87 84 71 67 67 61 60 53 54 58 64 84 85 66 71
51 56 63 69 75 76 80 78 76 80 86 82 80 78 79 78 81 86 83 74 69 65 59 54 57 69 70 90 78 67 59 59
51 53 60 66 73 77 82 79 74 80 84 82 81 81 82 88 89 86 83 79 70 65 60 59 65 71 85 76 61 59 63 67
59 58 62 64 69 74 77 75 74 75 79 82 82 82 82 85 87 83 83 76 66 66 60 65 75 82 70 70 58 61 62 64
65 66 65 65 70 72 75 72 72 74 78 81 83 85 84 85 89 88 83 75 64 58 59 74 79 71 65 69 70 64 63 60
66 69 73 73 72 71 73 76 77 75 80 86 88 88 90 91 92 88 82 74 67 68 72 74 72 67 56 73 72 66 58 59
68 71 75 76 79 80 79 80 78 79 82 81 82 83 85 86 86 82 78 74 66 69 70 73 72 70 71 72 73 59 57 60
67 73 74 76 79 79 83 87 86 83 78 76 79 81 82 82 75 70 68 63 66 66 74 72 74 72 72 66 55 57 58 59
61 63 68 75 77 77 78 80 80 77 76 76 80 75 68 66 64 70 70 74 73 68 77 80 88 85 78 78 70 66 64 62
63 65 62 64 69 73 80 79 77 73 74 71 67 64 67 75 75 77 82 82 76 74 85 91 93 88 95 92 86 68 58 59
65 72 74 73 75 77 79 76 73 71 70 66 67 69 72 73 73 76 79 87 89 95 96 94 96 92 90 86 84 60 61 60
68 70 71 70 68 71 72 69 71 70 67 64 64 68 70 71 81 87 92 95 95 95 92 87 80 70 82 84 87 62 62 62

GFSFLT1_sfc_rhum_048.txt.gz
RH
47 51 47 42 43 52 56 57 63 68 61 56 43 48 48 55 56 53 61 54 60 54 49 56 49 47 48 44 44 36 32 30
46 45 43 42 46 53 55 62 63 72 56 50 42 48 50 55 53 57 59 53 55 55 50 55 51 49 47 50 44 44 37 37
44 48 45 45 46 50 52 52 54 60 51 46 42 40 44 46 51 59 60 58 54 53 53 54 52 46 52 50 47 41 38 38
44 46 50 52 48 51 47 47 49 56 55 49 45 45 50 52 55 65 65 74 60 54 59 58 57 48 48 50 48 44 40 40
37 44 48 50 51 48 47 48 49 53 58 52 52 44 49 51 54 52 53 60 60 53 55 57 60 48 48 48 42 42 41 42
33 37 42 45 47 50 49 47 48 51 55 57 53 49 42 46 55 59 62 63 60 54 54 58 62 51 51 50 49 47 43 43
30 31 36 40 44 51 55 51 50 51 56 61 61 59 51 49 61 63 61 63 63 58 51 55 56 51 52 48 49 52 56 62
34 32 36 42 48 55 58 54 51 51 56 59 63 66 64 62 61 62 64 66 75 73 66 59 54 52 48 50 70 64 59 56
31 34 35 39 48 55 57 57 57 51 60 62 62 69 72 65 60 64 72 77 76 70 67 63 55 54 59 71 67 66 56 53
28 29 33 39 46 55 58 54 50 52 68 68 72 81 79 72 68 76 82 80 75 69 66 66 65 51 58 77 72 77 65 62
29 30 33 37 42 51 57 56 52 52 58 69 70 72 72 71 72 81 79 78 72 70 71 62 56 67 75 81 70 75 73 71
37 37 37 39 42 47 54 54 51 52 55 59 68 71 74 73 78 79 76 77 75 74 67 58 63 77 80 80 85 77 70 80
39 42 44 44 47 47 49 50 48 49 53 58 63 68 74 78 81 83 84 84 79 70 67 72 79 80 81 84 80 82 81 75
37 43 45 47 49 50 50 55 54 54 55 60 67 76 85 88 90 90 89 88 80 75 78 75 74 77 84 88 83 85 82 70
37 43 46 50 53 55 57 64 65 67 66 68 75 80 82 84 84 82 81 75 75 76 76 81 86 86 76 79 85 82 75 65
41 42 45 49 55 58 59 66 67 66 69 70 77 76 73 69 66 63 64 65 66 68 78 87 84 81 84 85 83 83 80 76
44 44 46 48 51 52 61 61 62 60 61 62 61 59 57 62 64 66 66 71 69 74 70 75 83 80 94 97 94 86 77 61
45 45 47 49 54 56 58 58 57 57 58 57 57 57 59 62 57 58 63 70 82 84 87 88 89 88 97 97 95 64 54 50
47 47 49 50 52 54 55 52 54 55 54 54 54 54 56 57 60 65 77 82 86 88 90 85 79 72 85 86 86 54 51 48

GFSFLT1_sfc_rhum_054.txt.gz
RH
52 56 56 54 56 62 62 63 64 62 63 61 60 72 63 59 54 57 69 72 76 81 82 79 76 75 75 73 71 70 65 58
49 50 52 52 55 60 59 62 63 62 67 65 63 68 58 58 56 61 73 72 75 77 84 80 79 77 74 75 74 70 65 58
51 51 52 56 61 60 59 58 55 57 65 64 58 58 59 54 54 67 71 75 73 77 82 77 82 76 77 78 76 76 71 69
48 51 55 55 60 64 61 60 59 64 65 58 53 51 53 54 52 59 65 70 70 72 76 78 78 79 81 82 79 76 75 72
44 48 52 54 54 56 54 55 56 59 61 59 57 51 48 51 53 59 61 73 75 68 72 76 80 79 79 81 74 72 71 70
41 44 47 48 50 54 54 53 51 53 60 62 67 57 54 51 61 63 64 75 77 78 75 78 82 82 81 82 77 73 74 71
35 40 40 44 47 53 56 54 50 50 59 62 64 66 60 58 61 64 75 76 79 78 70 80 85 85 86 85 84 78 75 74
30 36 40 42 46 51 54 52 50 50 53 56 60 68 68 61 64 64 73 75 78 79 85 84 84 81 84 83 84 78 80 80
27 29 36 40 46 50 51 48 50 47 53 57 69 62 71 78 73 62 74 70 76 79 86 81 82 85 85 83 85 86 92 96
26 25 29 36 43 50 54 49 46 46 54 66 68 84 90 94 85 78 83 80 85 90 92 87 89 86 86 88 91 94 93 92
24 23 28 32 39 47 53 52 48 47 54 66 71 79 86 86 85 82 85 93 93 93 93 90 86 86 86 88 92 87 91 96
27 27 28 28 34 41 52 51 49 57 70 74 74 82 76 78 85 88 88 93 92 87 87 87 86 85 88 91 95 93 95 96
30 31 31 33 35 40 47 52 54 65 71 77 73 73 79 88 93 95 95 93 91 90 88 88 88 92 92 93 94 94 93 94
31 35 36 37 39 41 49 55 54 62 69 79 81 90 94 97 96 96 96 95 93 92 92 92 94 94 94 94 91 89 90 88
27 35 38 41 44 47 50 57 59 67 83 83 90 92 95 96 95 94 92 90 91 92 92 92 93 92 90 88 88 89 90 92
23 32 39 43 48 50 52 71 74 76 81 85 90 89 88 88 87 86 84 83 83 85 88 90 89 88 86 87 86 93 93 92
18 25 35 43 48 53 70 75 76 74 76 81 79 78 79 80 81 80 78 78 81 82 84 85 90 79 93 91 92 93 90 90
24 28 37 47 54 70 68 67 68 68 70 69 67 68 71 73 69 69 72 76 80 82 82 83 84 91 94 94 96 89 90 91
35 45 54 62 64 58 61 57 60 62 61 60 61 63 62 61 65 71 79 81 83 87 87 87 88 84 96 96 97 92 72 69

GFSFLT1_sfc_rhum_057.txt.gz
RH
78 78 77 82 86 86 86 83 83 81 83 70 62 65 70 75 74 73 81 81 80 86 88 87 91 82 80 80 74 78 76 65
73 73 72 75 78 81 83 81 79 78 73 68 60 64 57 77 70 62 77 78 82 87 90 91 92 81 80 80 80 77 76 69
69 70 70 68 72 72 76 70 68 64 60 60 64 61 59 60 66 70 74 79 76 87 92 94 92 85 85 84 80 82 75 72
65 65 66 63 69 70 64 65 62 61 58 62 75 72 73 69 62 70 77 80 80 82 90 91 85 85 89 87 83 78 79 80
58 60 64 60 63 62 61 60 60 58 64 69 69 66 63 62 63 60 71 84 82 79 82 90 87 84 91 88 82 84 79 73
60 58 58 59 62 63 59 61 56 53 56 67 71 67 60 57 61 69 67 76 79 78 79 87 89 86 92 89 89 85 77 79
55 55 54 56 59 66 65 65 63 56 60 68 72 79 70 64 64 69 82 87 84 84 86 90 93 92 91 92 92 89 91 91
53 54 57 57 56 62 64 62 65 64 66 67 68 78 80 76 64 70 93 91 93 88 88 93 95 95 92 89 92 91 92 85
49 51 52 53 54 57 59 58 58 57 60 66 71 70 71 74 78 86 84 82 83 86 92 93 92 91 93 92 94 96 94 93
43 47 48 48 53 54 58 57 55 56 58 71 70 70 75 83 81 80 92 92 93 94 95 95 96 96 94 93 95 96 96 96
35 42 47 45 46 50 52 55 58 55 55 59 60 78 82 92 94 94 92 95 96 98 98 97 96 92 90 92 94 94 95 98
35 38 38 42 44 47 51 50 55 61 61 65 64 86 91 96 95 92 92 96 96 97 95 92 92 92 92 94 94 95 95 97
35 37 40 46 41 45 50 54 61 63 66 86 92 94 97 97 96 96 97 97 97 95 95 95 92 92 92 94 94 92 94 96
42 45 46 48 53 44 49 59 68 75 86 85 91 87 90 95 99 99 98 97 97 95 93 92 93 94 94 93 93 95 94 90
45 49 49 52 56 69 83 91 87 84 90 94 97 98 98 98 98 97 96 94 95 94 94 95 95 94 93 92 92 92 91 90
45 51 55 59 66 86 88 91 93 94 97 97 98 98 95 93 93 92 92 93 94 92 94 94 94 92 90 91 89 92 94 94
39 45 52 58 74 87 88 90 93 92 94 94 90 90 90 90 89 90 90 88 88 88 90 91 92 86 94 92 93 94 93 93
25 50 55 61 81 87 90 87 84 88 90 86 84 85 86 86 79 79 83 88 92 93 94 94 94 94 93 94 95 91 92 95
63 66 80 82 84 83 82 77 83 83 79 79 82 80 82 77 81 89 93 92 92 94 92 91 91 88 95 96 99 95 93 83

GFSFLT1_sfc_rhum_063.txt.gz
RH
94 83 80 84 88 89 90 91 94 89 90 90 85 91 82 78 76 78 82 85 83 89 91 91 93 94 91 88 81 83 79 75
94 80 81 85 86 89 88 88 89 83 88 82 86 88 82 78 73 73 81 85 87 91 94 93 95 95 89 86 85 83 87 82
96 96 94 94 88 88 85 86 96 89 80 76 77 71 75 71 76 77 76 83 84 90 92 93 94 94 91 88 84 90 89 82
96 96 97 86 92 89 84 92 93 90 82 71 76 74 72 68 68 77 82 80 83 86 90 92 94 94 91 93 89 90 91 93
90 93 98 90 88 80 88 91 89 84 85 83 81 73 71 65 61 71 72 82 82 84 87 93 95 95 95 93 90 88 91 89
89 88 89 93 89 87 93 89 87 80 82 74 75 76 72 71 73 72 72 80 88 89 90 93 94 96 94 94 95 94 92 94
79 78 80 86 86 90 92 89 82 81 78 76 76 74 71 70 76 77 75 79 87 92 93 94 94 93 94 94 92 93 93 91
78 80 80 81 84 85 86 86 83 78 77 75 71 74 74 74 66 72 70 77 86 86 94 92 93 93 92 94 96 96 97 95
73 75 74 74 76 78 80 78 80 75 75 74 70 67 71 74 75 69 74 75 71 81 92 92 92 93 96 98 99 99 98 96
66 69 70 69 69 72 75 71 70 71 73 71 70 70 74 74 76 90 85 85 81 90 93 93 93 93 95 98 98 98 98 97
61 63 66 64 62 64 68 73 67 64 67 65 65 67 71 77 84 84 87 87 93 96 96 94 94 95 97 97 98 98 97 98
56 60 60 61 60 60 63 67 72 69 66 68 67 71 74 80 83 84 90 93 97 98 97 97 97 98 99 99 98 98 97 98
43 55 59 61 61 61 62 63 67 71 77 76 79 78 84 83 86 86 86 93 98 98 98 98 98 98 98 98 98 97 97 98
44 52 58 59 62 61 61 65 68 72 80 82 84 89 93 94 92 86 92 94 96 99 99 99 99 98 98 97 96 97 96 95
49 49 55 57 58 61 61 66 68 74 80 83 85 88 90 86 86 86 91 94 96 96 97 98 98 98 96 95 95 96 96 96
47 54 54 53 59 59 59 62 70 76 80 83 85 84 83 86 90 95 99 98 98 98 99 99 98 97 96 95 94 96 96 96
42 52 58 67 73 75 69 68 74 78 82 82 78 79 92 95 98 98 99 98 98 98 98 98 98 97 99 97 95 94 92 92
32 53 53 62 81 89 89 84 77 80 78 82 83 96 98 98 98 98 98 98 98 99 98 97 98 98 98 97 95 89 91 95
29 39 60 73 93 96 97 95 94 90 92 97 98 98 98 98 98 98 98 98 98 98 98 97 97 96 97 97 97 91 88 86

GFSFLT1_sfc_rhum_066.txt.gz
RH
96 92 94 86 89 92 94 96 96 97 97 97 96 96 93 94 91 80 79 78 81 86 86 86 87 91 88 88 84 83 78 72
96 78 86 95 90 92 92 95 96 94 94 97 95 94 86 90 83 78 82 80 82 86 89 91 92 90 89 88 87 84 84 78
98 90 84 90 88 90 90 89 88 82 78 83 89 93 83 83 85 81 84 85 86 90 91 92 95 97 94 92 87 90 87 81
92 94 83 82 90 88 86 86 85 83 79 74 76 86 80 77 78 80 79 84 87 88 93 95 96 95 94 94 89 87 91 92
96 91 89 82 82 90 86 86 95 91 88 88 82 81 76 68 66 71 72 79 82 83 88 93 95 96 95 91 92 90 91 93
96 96 94 85 81 91 81 86 95 87 88 84 82 82 68 72 72 70 73 76 82 83 86 92 95 96 95 96 96 94 92 94
88 88 90 96 96 91 80 84 92 89 88 87 84 80 79 79 84 83 82 82 83 89 90 93 94 96 96 95 95 96 96 95
89 94 94 95 98 96 88 88 92 91 88 87 83 80 80 78 73 79 86 84 88 91 93 96 96 95 96 96 97 98 98 98
82 86 85 87 90 94 95 95 93 88 87 85 82 79 80 77 82 74 85 85 80 78 91 95 95 95 96 98 98 98 98 99
77 79 80 81 83 85 89 88 89 86 85 84 82 80 82 84 85 90 90 90 89 88 90 92 94 95 97 96 97 98 99 98
71 74 77 74 74 77 80 84 85 82 81 82 81 81 83 86 89 90 92 94 92 91 92 93 94 95 96 96 96 96 98 99
66 67 70 70 71 71 75 78 80 81 81 81 79 84 85 88 91 93 93 92 90 89 88 91 94 95 98 97 96 99 99 99
60 64 68 71 70 68 69 71 75 76 80 81 82 80 78 81 82 80 81 81 82 86 88 92 96 98 98 98 99 99 98 99
57 69 69 69 68 68 66 69 71 75 77 79 82 79 78 76 74 74 75 79 80 86 91 96 97 98 98 99 98 98 98 97
48 59 65 66 67 68 68 71 72 74 77 78 80 82 79 74 74 77 82 86 89 92 94 95 97 98 98 98 99 99 98 97
41 53 58 65 67 69 68 71 74 75 77 82 81 80 79 77 79 83 86 90 92 94 96 98 99 99 98 98 98 98 98 98
32 46 50 56 66 67 70 72 76 76 78 82 82 82 83 85 86 89 89 92 94 98 99 98 99 99 100 100 97 98 96 96
32 37 47 53 56 67 71 70 75 78 80 81 83 84 86 87 89 94 98 98 99 99 99 98 99 99 100 100 98 94 95 96
32 33 52 54 67 86 90 87 83 83 83 86 87 88 89 98 98 98 99 99 98 98 98 98 98 98 99 98 97 93 93 91

GFSFLT1_sfc_rhum_069.txt.gz
RH
74 77 75 72 84 90 94 96 98 98 98 97 96 95 94 95 97 93 79 65 66 71 69 69 68 70 65 63 64 60 51 47
74 75 75 73 82 87 91 96 97 96 94 92 96 96 93 94 94 91 80 72 69 74 75 74 76 72 70 72 70 74 64 60
79 72 78 80 82 83 86 91 92 89 86 82 83 87 88 88 90 91 84 78 69 73 77 73 72 80 82 83 82 77 79 71
86 77 77 82 79 84 83 85 87 84 86 89 92 94 94 94 95 95 90 81 76 77 82 79 83 84 86 89 88 79 76 78
77 79 74 78 78 77 78 78 78 74 78 85 90 80 88 86 86 85 90 90 86 80 81 87 91 88 88 91 87 79 76 78
73 76 72 71 74 78 76 76 75 73 71 71 77 81 76 83 83 85 83 87 87 83 80 90 86 91 90 84 86 83 81 77
66 70 71 72 71 81 78 77 76 74 73 71 71 72 74 72 72 70 75 78 79 81 77 77 80 76 81 83 83 82 82 82
66 73 76 76 79 84 75 73 76 78 75 73 73 70 71 69 69 64 73 71 68 71 74 75 75 76 76 77 81 83 83 85
61 67 72 76 82 84 76 75 77 79 77 73 71 70 65 64 64 59 62 60 59 63 70 68 69 70 74 76 80 82 84 90
55 62 68 72 77 79 79 78 79 80 77 74 73 71 71 69 68 70 70 68 66 66 68 70 71 72 73 76 80 82 86 86
53 58 67 66 70 74 77 77 82 78 73 74 72 72 71 70 72 71 69 70 68 67 67 68 66 68 72 75 79 79 85 88
50 54 59 62 64 68 74 72 73 77 77 77 75 76 75 74 74 73 72 74 75 75 70 68 66 68 72 77 78 80 89 89
44 52 56 61 64 64 67 68 69 73 79 80 81 79 76 76 76 74 76 74 74 73 74 72 68 70 77 87 95 97 98 98
40 49 54 58 61 62 62 67 67 71 74 78 81 83 81 79 78 75 73 71 70 76 78 78 79 84 91 96 96 98 98 98
32 40 48 53 57 60 61 66 68 71 70 72 76 79 78 76 74 71 72 68 71 70 77 78 78 81 90 93 97 98 98 97
31 36 40 48 56 59 59 61 67 69 70 71 72 73 73 71 72 70 68 70 68 69 78 84 86 94 98 98 98 98 98 98
28 30 35 44 54 57 61 62 68 66 68 71 67 68 70 72 72 71 71 73 73 76 89 90 99 98 100 100 99 97 98 96
31 30 29 38 45 57 60 61 63 68 67 66 68 70 71 74 71 69 73 78 81 86 93 96 98 98 100 100 100 96 96 95
31 31 32 36 40 46 55 56 64 68 67 66 68 72 74 73 76 80 84 88 94 98 98 99 98 99 100 100 100 96 96 94

GFSFLT1_sfc_rhum_072.txt.gz
RH
48 52 50 54 59 73 88 90 97 94 94 91 94 95 92 97 97 89 76 56 57 44 43 54 53 45 46 44 48 42 41 39
47 54 56 59 64 74 80 96 97 96 94 95 94 95 93 95 91 90 79 59 50 50 43 54 58 54 53 57 55 59 50 47
51 55 56 59 66 70 82 91 95 89 90 87 91 89 92 86 92 89 84 66 50 59 67 66 64 58 59 64 68 68 62 68
51 56 58 56 68 67 66 81 85 84 80 78 88 94 96 96 96 92 91 79 57 64 77 73 77 65 61 69 70 68 67 69
45 52 55 55 58 66 62 71 71 80 80 78 73 70 86 79 85 87 93 85 74 69 77 78 79 72 65 72 77 65 63 75
42 49 49 50 51 63 68 68 63 76 82 76 75 65 74 81 83 89 91 94 87 73 80 82 81 77 80 77 79 71 62 67
37 42 46 48 50 59 68 63 61 68 73 77 82 79 74 78 90 86 92 94 91 88 74 74 71 81 72 72 80 77 73 68
35 41 47 48 53 59 59 55 56 61 66 69 72 73 72 74 81 80 86 86 82 79 80 80 70 64 80 74 69 74 62 66
33 38 45 48 53 57 58 52 51 54 62 61 62 62 68 65 65 60 65 64 64 65 72 74 70 67 73 72 69 59 64 67
31 35 43 47 52 57 60 50 48 52 59 60 60 60 61 60 62 59 57 59 54 64 65 68 67 63 61 66 60 60 61 64
28 32 41 44 49 54 60 52 48 50 55 58 56 58 59 57 57 60 59 58 55 58 60 61 58 55 54 56 55 54 57 60
27 31 36 42 45 50 56 53 49 54 58 57 58 58 58 61 62 60 60 60 58 57 58 57 51 51 51 54 55 55 56 59
21 31 37 41 45 47 51 53 51 52 59 60 62 60 57 60 63 62 64 62 60 57 55 52 51 50 55 56 58 56 58 61
18 30 36 40 42 45 47 53 52 54 56 60 63 65 64 64 64 62 58 59 58 57 55 56 55 58 57 58 58 61 63 76
18 20 29 35 38 42 44 50 54 55 55 58 62 64 65 62 59 58 60 56 55 55 56 57 60 59 61 62 82 86 90 88
17 19 20 26 34 40 42 45 51 53 56 59 62 61 59 59 61 61 59 60 57 55 58 59 62 73 77 79 72 78 91 96
18 19 19 22 25 34 40 44 49 51 55 57 55 58 59 60 60 62 62 62 60 59 60 59 62 65 86 98 84 92 97 98
21 19 20 22 23 30 36 39 43 50 53 52 53 55 57 60 58 58 60 62 63 65 61 59 64 68 100 100 100 92 96 97
26 22 21 20 22 25 32 31 40 48 48 48 50 53 55 55 58 59 62 62 65 68 70 69 78 92 100 100 100 99 99 98

GFSFLT1_sfc_rhum_075.txt.gz
RH
32 36 34 37 43 59 79 92 90 95 98 95 95 96 94 92 93 82 62 54 57 52 47 59 55 46 44 40 46 40 39 36
30 39 39 42 48 58 66 89 92 92 96 98 97 97 93 92 93 79 73 52 51 53 45 52 51 43 44 51 47 52 45 42
32 41 44 48 50 59 73 84 80 87 89 86 88 85 87 85 90 85 74 70 53 52 54 56 54 48 57 60 60 56 53 54
32 40 46 50 50 58 59 77 88 78 78 78 82 88 89 90 92 92 85 76 62 48 52 59 65 64 64 68 66 64 74 64
29 37 43 47 49 51 60 72 81 83 80 87 92 87 94 86 88 86 92 85 74 51 57 66 73 65 73 67 64 66 76 84
28 35 38 41 45 51 51 69 70 80 82 84 86 84 82 84 93 88 87 92 81 65 67 78 81 73 83 79 77 70 75 81
24 30 35 38 42 50 53 65 66 69 72 70 76 74 76 83 90 92 86 93 92 80 71 75 82 83 83 77 72 77 79 76
23 30 35 38 44 50 53 53 55 68 73 72 73 67 68 73 73 84 87 83 89 88 77 74 73 74 73 72 74 76 79 82
21 26 34 37 43 47 51 48 47 52 68 70 72 67 62 60 66 61 65 72 76 79 82 75 70 72 68 71 71 72 78 76
20 23 31 36 42 48 51 44 42 44 55 61 65 66 65 66 64 67 65 63 58 69 74 75 73 71 68 68 76 73 73 74
16 22 28 34 38 44 51 46 41 41 47 53 54 57 60 64 64 66 67 67 66 71 72 69 68 67 65 64 63 64 74 78
18 22 24 31 35 41 47 48 40 42 47 50 53 54 55 59 63 63 63 64 64 63 66 63 60 60 60 62 61 61 64 67
15 20 23 28 34 38 44 47 44 41 47 53 57 56 54 57 59 60 64 61 60 58 58 60 58 57 59 62 63 58 62 60
14 18 23 28 33 36 40 47 46 45 44 51 58 60 59 59 60 60 57 60 58 58 56 59 58 59 58 59 58 58 57 57
15 14 17 25 31 35 37 44 47 47 45 48 54 58 59 57 57 57 59 57 58 58 59 58 58 55 53 52 52 57 59 58
17 16 15 16 26 32 34 37 42 46 47 50 54 57 56 55 57 57 57 59 56 56 58 60 60 58 54 58 57 62 66 67
20 18 17 16 16 25 30 35 40 43 48 51 50 52 54 56 58 60 60 60 57 57 58 58 61 54 70 82 78 76 85 86
30 29 25 21 19 20 22 29 34 42 47 47 48 50 53 57 55 55 58 61 62 63 60 59 60 60 82 91 94 75 81 81
32 31 31 26 24 21 21 20 27 39 43 45 45 48 50 52 55 56 60 61 65 66 66 64 63 60 92 99 99 78 78 92

GFSFLT1_sfc_rhum_078.txt.gz
RH
30 32 37 36 53 72 74 93 97 98 98 97 96 96 96 94 94 90 85 80 75 78 80 84 83 80 70 66 62 60 61 58
31 37 42 45 58 70 79 94 97 97 98 98 98 97 94 96 92 90 87 73 70 72 68 75 74 69 64 66 68 64 66 64
32 40 45 51 59 68 82 86 91 93 91 88 89 91 89 85 88 79 76 72 64 65 68 67 66 64 67 71 68 72 71 71
33 42 50 54 60 65 69 76 85 89 85 84 87 91 92 91 94 89 85 80 63 60 69 67 68 68 71 74 75 74 82 76
30 40 49 56 57 64 65 77 76 84 86 88 90 90 95 88 86 84 83 84 79 61 69 74 78 78 78 75 75 79 88 89
27 37 43 48 54 64 64 73 73 79 84 84 88 88 82 80 88 91 88 88 87 80 67 80 80 82 85 82 84 88 91 91
23 33 39 44 52 61 66 71 75 77 82 86 82 83 84 82 90 94 95 91 88 86 76 80 86 84 88 87 81 89 93 85
24 32 38 44 54 61 62 70 70 77 84 86 86 83 81 88 83 84 85 89 89 82 82 81 81 80 81 88 91 90 88 87
24 29 38 42 52 59 60 64 66 73 82 82 82 79 80 80 84 80 75 75 80 75 80 79 78 76 76 80 82 87 86 88
22 24 37 41 49 58 61 56 58 62 72 74 77 76 76 80 80 79 79 73 65 69 74 80 78 73 72 73 78 80 82 83
23 23 36 39 46 54 62 56 54 54 71 73 69 69 74 72 72 76 77 78 74 65 69 78 80 74 71 72 70 71 78 78
23 25 30 37 42 48 57 56 49 53 61 70 72 73 73 71 72 74 72 73 75 74 72 75 77 76 72 71 70 69 74 74
21 24 28 33 40 45 52 55 52 49 56 62 68 70 70 72 74 73 74 74 72 70 70 76 76 73 73 74 72 64 70 72
20 18 26 29 36 40 45 54 55 53 52 59 65 66 68 68 70 72 70 73 72 73 71 73 74 72 70 70 67 67 68 68
20 20 20 28 33 38 41 50 55 56 52 53 60 65 66 65 65 66 71 70 70 71 70 71 73 70 67 66 64 66 66 67
29 32 32 28 28 38 39 44 52 55 54 53 56 62 64 64 66 66 66 68 68 67 69 69 68 68 65 68 66 68 70 70
34 33 32 33 32 29 35 42 47 51 54 55 53 57 60 65 67 68 68 69 67 68 70 69 70 62 74 81 73 70 69 70
36 36 38 43 45 43 32 29 40 46 51 53 53 56 59 63 64 65 66 69 70 72 70 69 71 70 83 84 84 67 71 76
36 39 45 49 53 62 61 51 31 35 45 48 51 55 58 59 63 64 67 68 71 72 72 71 71 68 86 87 88 75 73 87

GFSFLT1_sfc_rhum_081.txt.gz
RH
40 48 56 79 87 92 97 96 97 98 96 96 98 97 97 96 95 93 89 81 80 81 86 91 82 84 75 65 60 68 64 63
39 46 51 76 86 93 96 96 98 98 98 98 98 98 97 96 92 91 87 77 78 73 85 91 91 83 68 62 69 64 66 65
41 51 57 75 86 94 94 91 97 97 96 93 90 92 91 88 88 82 88 84 72 73 81 87 81 73 73 72 65 76 67 72
45 52 58 80 89 95 95 86 94 90 91 89 90 90 95 96 95 90 91 85 74 68 75 76 72 72 67 70 68 70 77 78
45 53 58 72 84 92 93 95 93 88 89 91 94 94 95 92 88 82 82 86 79 66 76 70 76 74 67 69 67 61 85 84
48 54 56 61 72 82 86 93 88 88 88 89 91 92 87 84 90 86 84 91 86 77 79 84 77 86 86 80 79 83 90 86
45 51 58 59 72 74 87 89 83 88 87 87 87 89 88 88 89 90 86 90 95 90 78 79 76 89 92 88 91 89 88 89
46 55 61 63 75 74 87 85 82 86 87 88 87 86 84 83 85 84 84 85 83 83 90 86 81 85 92 90 91 91 93 90
45 51 55 62 68 75 72 83 88 81 85 86 81 83 82 80 82 81 82 82 78 67 84 83 83 85 86 90 92 89 91 91
44 47 51 58 66 72 75 79 78 85 83 80 85 90 87 85 79 79 80 79 79 77 72 91 84 82 82 84 84 90 89 87
34 45 49 54 63 66 68 77 76 79 88 85 83 85 85 82 84 84 80 77 77 82 79 78 82 80 78 78 77 77 83 84
28 36 46 50 60 65 66 67 71 71 83 83 79 81 79 81 81 83 80 79 76 73 78 80 79 83 79 78 73 70 77 75
26 31 49 54 58 64 66 62 62 64 76 80 80 77 73 74 80 79 80 81 80 80 74 72 74 78 82 79 78 69 71 74
37 36 34 46 57 62 65 65 59 60 73 81 81 80 79 78 78 75 75 77 77 79 79 77 71 76 76 80 76 74 72 71
39 40 40 41 41 63 64 66 64 62 65 74 80 80 81 79 78 77 77 78 79 80 80 79 79 75 74 74 75 76 74 72
40 42 48 49 54 59 64 62 66 65 64 69 71 74 74 76 77 78 77 79 77 77 79 79 77 80 78 81 77 79 79 77
41 51 58 64 68 70 68 69 71 72 64 62 62 70 72 73 74 76 78 80 78 78 80 80 82 75 85 90 83 79 77 77
64 71 70 69 72 74 77 73 66 66 69 69 63 66 69 70 71 74 75 77 77 82 81 79 81 79 89 91 92 76 78 78
71 74 74 76 75 76 75 71 75 78 82 81 82 72 71 68 70 72 75 75 78 79 79 79 81 77 90 90 91 79 78 81

GFSFLT1_sfc_rhum_084.txt.gz
RH
46 71 84 93 96 97 97 95 96 97 96 94 99 98 98 98 96 94 92 89 86 77 74 83 81 65 73 79 70 72 65 71
48 73 85 95 97 98 98 96 97 96 98 98 96 98 98 99 95 93 92 88 87 82 74 83 82 67 66 72 70 64 72 74
52 77 88 93 98 96 96 97 97 94 92 91 94 92 95 91 93 95 90 88 83 85 73 80 74 80 73 71 71 76 74 73
54 73 89 92 97 96 91 90 96 95 92 90 91 92 96 97 96 95 94 89 82 82 82 80 85 83 75 72 68 61 68 80
50 61 88 93 96 95 93 86 92 93 93 92 93 92 90 86 91 86 88 92 84 74 78 82 84 86 80 69 63 63 82 75
51 57 73 83 95 97 94 84 79 83 92 90 91 92 89 89 94 95 90 93 88 79 78 82 83 86 83 74 74 81 81 83
48 50 65 86 95 97 93 90 85 81 89 91 90 90 90 92 91 90 88 89 94 88 79 79 78 85 86 85 82 80 85 84
50 58 70 85 95 96 97 94 92 86 88 90 90 88 82 88 88 85 82 84 90 88 86 84 79 78 77 78 87 88 86 86
52 61 63 76 83 91 91 95 96 96 91 88 86 85 84 83 84 81 82 79 76 75 85 85 82 77 85 83 83 85 91 89
56 62 61 70 77 86 87 87 86 92 90 86 87 86 84 83 82 80 81 77 71 72 80 88 87 86 82 84 82 84 89 89
56 60 63 66 73 77 86 84 84 85 86 86 83 84 83 80 80 83 81 78 75 74 76 82 85 86 86 87 85 85 88 85
54 55 58 64 70 75 80 83 86 86 85 84 82 82 86 86 86 85 81 81 78 74 78 77 81 87 87 88 79 80 87 83
47 56 64 71 72 74 80 80 80 86 87 86 84 81 84 90 86 85 82 82 80 78 77 80 78 78 84 86 82 74 83 83
51 54 60 68 73 74 75 77 80 79 88 90 90 90 91 89 86 82 82 82 81 80 76 81 82 79 79 82 80 79 78 77
59 66 70 69 71 82 86 84 77 76 80 87 89 87 85 83 82 85 83 82 82 83 81 78 79 80 80 80 82 79 75 75
67 71 70 70 74 77 78 78 79 79 82 85 86 84 84 83 81 80 83 84 84 82 85 84 83 81 76 79 79 84 82 80
66 66 71 74 76 79 77 80 82 79 81 86 84 87 84 84 83 83 84 82 80 84 85 86 88 82 88 89 83 81 82 83
70 74 76 78 80 78 81 78 77 80 84 81 83 84 85 82 86 87 86 87 86 86 84 84 86 85 93 94 95 80 84 84
77 79 78 77 75 76 75 74 76 78 80 80 79 85 85 84 85 83 84 84 90 90 89 86 86 83 95 95 97 88 85 84

GFSFLT1_sfc_rhum_087.txt.gz
RH
42 80 86 94 96 91 93 98 99 95 96 99 99 100 99 99 98 98 97 96 93 88 85 85 76 75 77 84 72 78 79 80
51 84 92 96 92 89 90 97 97 96 96 99 99 99 99 99 98 97 96 94 90 86 90 86 75 66 72 79 76 76 87 83
70 93 96 93 91 88 90 89 91 96 87 86 90 95 97 96 98 96 98 95 87 83 87 80 69 62 74 83 72 79 82 82
72 94 97 91 89 90 89 88 87 96 94 88 92 97 98 99 99 99 99 95 91 89 90 79 78 63 75 75 74 72 77 80
62 83 97 95 88 89 97 88 86 86 95 95 94 92 97 94 95 95 98 95 96 90 88 92 83 84 77 76 68 64 80 75
55 79 86 93 86 92 95 97 86 85 88 90 93 94 88 91 94 95 96 97 92 89 89 90 90 86 80 78 77 80 83 81
48 60 78 95 86 90 96 87 87 88 86 91 90 91 87 94 95 96 96 96 94 92 86 85 83 87 88 82 85 84 87 81
49 63 86 92 91 89 86 83 80 83 92 91 91 88 85 87 88 90 91 92 94 92 89 86 80 86 87 88 88 89 88 87
50 57 80 94 90 89 85 88 81 80 83 85 87 86 86 93 93 92 92 88 86 92 92 86 80 81 87 86 88 87 85 88
46 55 73 90 95 92 90 87 84 82 82 82 85 87 85 87 93 91 89 86 81 80 86 86 85 82 84 88 86 84 82 87
52 58 71 80 87 91 94 92 90 84 82 89 85 90 84 83 86 92 87 89 84 88 89 86 88 84 83 84 82 79 83 83
68 67 71 74 79 88 91 91 93 93 92 93 93 91 84 84 84 85 83 86 86 83 82 83 88 87 85 84 80 78 85 78
73 76 78 84 85 86 93 94 92 92 92 93 93 93 89 86 85 84 84 84 82 79 79 82 84 83 90 90 87 82 92 87
74 81 88 88 86 88 90 91 90 93 93 93 92 93 93 89 87 86 86 84 83 83 80 79 80 83 85 90 88 87 85 86
77 80 84 84 85 87 89 92 93 91 92 93 94 93 92 83 84 85 88 84 84 84 83 82 81 78 77 78 83 85 83 82
73 81 80 82 84 83 84 86 85 87 89 95 95 94 92 90 90 89 88 88 87 85 86 84 82 81 79 80 76 82 83 82
76 77 76 79 79 79 79 82 84 82 86 88 87 90 90 91 93 92 90 90 90 88 88 88 90 83 87 92 86 85 86 87
80 79 78 79 80 79 83 79 77 79 79 78 79 82 83 86 87 89 91 89 88 89 88 88 89 87 97 94 94 82 85 88
82 78 78 78 78 80 79 77 77 78 78 78 77 80 82 82 85 88 92 94 94 90 89 87 88 84 96 100 100 87 84 83

GFSFLT1_sfc_rhum_093.txt.gz
RH
20 22 33 49 59 69 74 88 94 95 95 94 95 96 96 95 94 94 95 98 96 95 97 96 95 94 79 72 71 68 63 63
21 26 30 55 66 73 77 95 93 96 96 96 96 97 98 97 96 88 95 98 96 95 95 93 91 86 72 69 74 72 70 65
25 30 49 64 69 74 80 91 94 93 86 80 76 82 89 87 94 98 97 97 95 92 89 86 80 78 78 73 71 69 69 71
26 44 63 68 71 77 81 89 90 88 82 76 80 81 94 94 96 90 99 95 94 93 86 82 80 76 73 72 73 71 76 72
26 38 64 71 71 74 80 86 89 86 83 82 78 82 88 82 83 93 98 95 95 92 88 83 82 78 77 73 68 69 73 75
29 34 51 62 71 76 82 87 88 85 84 79 76 80 72 75 83 98 98 94 96 95 92 88 87 84 82 76 76 76 71 68
33 31 53 65 69 75 82 86 88 85 84 79 78 82 79 81 91 97 97 98 98 97 95 92 89 90 90 89 84 79 78 72
53 33 58 69 74 79 81 82 86 87 86 84 84 84 81 77 83 94 96 98 97 97 96 96 93 89 84 85 85 83 80 76
63 46 51 68 74 79 81 84 82 83 85 83 84 83 75 71 78 84 82 94 95 94 92 92 90 79 79 82 77 77 79 80
68 58 55 68 73 80 84 81 80 81 81 82 85 87 79 76 83 84 85 89 90 95 93 92 88 80 76 77 73 81 86 82
74 54 51 68 70 77 86 85 82 82 78 82 82 82 86 78 77 80 86 88 87 90 96 94 91 85 72 74 71 59 76 83
77 62 59 71 72 79 87 82 80 80 78 81 78 74 86 83 80 84 85 83 80 81 81 89 88 83 80 80 73 67 85 80
85 83 78 78 81 78 83 81 78 76 74 74 74 76 87 87 83 84 83 81 78 76 77 77 76 76 75 78 82 81 82 76
87 84 89 90 90 90 89 87 82 82 80 83 82 84 87 82 81 84 86 81 79 77 75 80 79 77 78 81 82 82 83 82
87 88 88 88 88 90 91 95 89 87 86 89 90 89 88 83 78 74 82 83 83 84 82 79 76 76 75 77 80 81 81 78
88 89 88 88 88 87 87 89 92 94 94 95 95 86 86 84 82 79 76 80 78 76 80 80 80 78 72 77 74 75 77 80
89 85 86 88 87 86 85 86 87 85 87 90 89 89 88 90 91 95 93 92 88 86 82 78 80 75 91 95 86 76 75 75
90 85 81 80 83 79 80 78 80 82 86 82 82 83 84 86 85 86 90 93 93 95 95 94 92 91 96 99 99 86 84 85
96 94 86 81 78 79 74 72 74 84 84 74 77 82 82 80 80 83 87 89 93 94 94 90 92 85 95 95 96 95 92 87

GFSFLT1_sfc_rhum_096.txt.gz
RH
12 12 15 19 25 38 48 57 74 87 87 89 90 89 88 80 74 77 77 84 88 96 96 98 96 96 96 95 80 75 64 52
12 14 15 20 25 37 46 59 76 88 92 95 96 94 92 86 71 80 77 93 98 98 97 98 95 95 94 91 76 69 70 59
14 15 16 24 28 38 46 52 77 79 70 68 71 76 79 73 80 84 86 90 96 95 96 95 94 94 94 88 74 70 66 64
17 16 18 23 35 40 44 51 77 77 62 62 71 66 73 77 83 93 98 95 96 95 95 94 94 92 90 79 71 70 68 64
25 20 18 21 34 40 43 57 77 76 70 65 65 62 69 67 74 67 94 91 96 91 95 93 93 90 79 74 67 64 62 66
34 29 22 19 30 44 49 70 78 76 73 62 62 58 50 63 68 78 90 94 92 94 92 91 89 82 77 71 69 67 61 61
36 34 28 22 29 47 60 79 80 79 73 65 65 61 57 64 71 78 97 97 98 94 93 91 88 84 82 79 79 78 75 68
41 39 36 27 38 52 68 80 80 76 74 70 69 61 61 63 70 78 94 96 97 98 95 95 93 91 87 84 86 86 87 83
46 50 47 36 39 50 71 78 75 74 75 73 73 59 72 58 66 75 85 89 93 92 94 94 90 90 90 91 89 86 87 85
54 62 51 42 40 52 72 72 65 76 74 74 77 68 78 63 62 63 68 81 89 95 93 95 92 92 87 84 83 83 74 79
66 71 54 36 39 52 75 74 71 80 74 75 76 77 77 65 64 71 69 74 87 92 93 93 94 94 94 83 79 80 73 77
75 77 67 42 44 61 78 77 76 82 80 75 77 78 78 74 66 71 73 80 82 88 91 93 92 89 87 84 80 78 77 65
77 79 84 69 63 78 79 78 83 81 80 75 79 78 78 78 73 72 70 77 77 83 83 91 92 88 84 77 73 66 68 53
79 81 85 89 92 84 82 85 85 84 79 81 76 69 74 80 81 69 72 72 74 74 72 82 84 85 84 80 72 70 63 61
83 85 87 87 89 90 92 93 89 84 79 78 79 76 77 80 75 67 78 77 69 70 70 70 74 75 74 73 71 73 73 75
94 92 90 87 88 88 88 91 91 92 93 94 92 82 77 78 73 68 74 80 79 72 74 75 75 75 73 79 76 80 82 82
91 97 90 89 88 85 86 89 91 87 89 91 90 89 88 89 90 92 92 90 88 84 81 77 77 78 96 97 94 76 75 75
100 100 99 90 84 81 89 88 88 88 86 82 84 85 88 90 87 88 92 95 93 93 93 93 92 89 95 95 95 84 82 77
100 100 99 96 88 83 78 77 81 88 85 88 83 84 86 87 85 88 92 92 92 90 90 89 88 86 93 93 95 88 93 94

GFSFLT1_sfc_rhum_099.txt.gz
RH
9 9 10 11 14 20 29 45 58 73 77 73 77 75 81 68 63 62 65 73 74 74 85 91 90 90 88 93 88 89 84 68
11 12 11 12 16 21 29 43 56 74 79 80 86 81 87 74 76 63 59 65 79 81 95 98 96 95 93 92 81 87 86 76
13 13 14 15 16 20 26 36 48 69 75 70 67 69 74 63 65 60 60 66 76 89 94 96 97 96 95 94 89 88 82 74
15 15 16 17 18 23 22 30 40 68 70 60 56 60 67 67 73 60 71 72 81 91 96 98 96 95 95 94 93 87 82 76
22 22 22 20 20 21 26 28 35 68 63 54 57 57 67 61 60 55 79 83 90 90 94 95 95 94 94 94 90 82 77 72
28 27 26 22 20 21 30 32 35 67 59 52 56 55 52 52 51 65 94 94 87 91 93 98 96 94 94 93 86 79 70 68
30 30 29 28 23 25 32 38 48 67 66 55 59 58 51 50 56 74 86 93 97 94 91 98 97 95 95 93 80 77 75 74
34 34 36 39 35 24 32 41 62 71 77 59 57 55 52 52 61 72 90 96 97 95 94 98 97 96 94 87 87 84 78 73
38 41 47 48 42 30 34 46 67 73 79 60 56 53 50 48 57 68 77 94 94 93 92 94 97 94 94 92 94 94 94 95
42 49 56 53 58 36 39 64 69 78 79 65 59 55 53 50 61 70 76 81 87 90 92 95 95 94 93 93 94 94 95 94
49 56 63 61 64 34 45 71 74 78 78 72 62 55 57 54 66 76 78 73 82 89 92 94 94 94 92 93 91 88 91 89
57 66 69 65 72 36 62 69 75 80 82 78 73 59 59 59 66 67 74 76 80 86 93 93 94 94 92 93 92 84 86 79
59 71 77 75 83 83 74 74 81 81 83 82 80 72 62 71 72 66 68 73 73 80 85 90 92 92 92 93 92 81 81 84
63 73 81 82 85 86 90 87 86 86 85 82 81 78 72 76 76 73 74 74 73 74 77 85 88 88 88 87 86 84 74 74
70 80 83 84 85 87 90 94 93 90 89 84 83 82 77 79 69 68 73 70 71 70 75 74 82 82 79 80 79 77 69 64
83 88 88 88 88 88 87 90 92 91 93 95 93 83 78 78 80 77 68 70 72 73 71 76 77 77 82 90 80 79 77 76
93 89 92 92 92 92 90 90 91 89 92 92 91 92 91 91 91 93 84 88 88 85 85 81 88 74 96 96 94 89 82 82
100 100 100 98 97 96 96 93 88 88 90 90 90 90 91 92 90 92 94 94 93 94 93 90 91 87 94 94 94 80 82 87
99 100 100 100 96 94 96 91 89 91 94 92 92 91 91 90 91 92 93 92 93 93 92 90 88 87 93 94 96 92 94 92

GFSFLT1_sfc_rhum_102.txt.gz
RH
11 11 11 12 14 29 60 71 82 84 82 82 74 77 76 78 75 75 79 86 86 89 92 92 92 93 92 92 90 92 91 94
13 16 16 22 26 32 48 66 78 84 84 85 80 84 83 82 75 72 76 82 84 86 93 93 93 94 91 91 89 93 97 94
16 19 22 28 29 31 35 55 69 76 79 77 80 77 81 79 76 76 77 78 83 88 93 96 94 94 92 92 91 92 94 95
17 21 30 36 35 39 29 40 59 71 76 75 76 79 80 82 78 76 78 77 82 89 92 95 96 95 96 96 92 87 90 96
24 27 30 34 38 40 35 33 42 65 76 77 77 76 80 80 75 74 76 81 89 90 94 95 97 95 96 96 94 91 87 94
32 32 32 30 38 42 44 38 34 65 76 75 73 69 72 72 74 74 91 90 90 88 92 96 98 95 96 95 96 96 93 89
34 35 36 37 42 51 49 46 37 70 75 71 69 70 69 70 71 79 92 92 94 89 94 96 95 96 96 94 94 90 93 90
40 41 44 50 53 54 53 40 41 74 76 72 69 69 70 69 68 76 92 98 98 96 95 99 98 96 96 95 94 94 92 93
46 48 55 60 60 62 60 68 44 72 77 72 67 65 65 65 68 72 85 89 93 95 95 96 97 98 96 98 97 94 94 95
49 53 62 67 67 70 74 73 54 76 80 79 73 69 67 68 71 79 85 89 92 93 93 95 97 96 97 98 99 99 97 98
53 60 68 69 69 73 79 65 71 77 78 79 77 69 70 69 71 82 84 89 88 94 96 95 96 96 96 96 97 98 97 99
59 65 70 72 72 75 87 74 71 79 82 80 86 82 70 73 75 78 80 87 89 92 93 95 96 95 96 96 95 95 95 96
66 69 74 79 81 82 85 88 84 82 87 90 90 84 73 72 79 81 85 87 88 88 92 93 94 95 95 95 95 93 95 94
76 78 80 83 85 84 85 89 91 92 91 92 92 89 82 77 78 77 85 85 84 88 90 94 94 93 94 92 91 91 91 89
79 82 86 84 86 86 88 90 90 92 93 93 93 93 86 83 81 81 81 81 83 86 88 90 92 91 90 92 91 91 88 84
89 90 85 89 88 88 87 89 89 89 91 93 96 95 89 88 87 83 81 80 80 81 86 85 86 88 85 90 87 89 88 85
94 94 93 88 94 90 91 91 91 88 91 93 92 93 93 95 95 95 94 92 89 88 87 85 86 81 96 95 95 88 84 82
99 100 99 97 97 97 96 94 90 90 91 90 90 90 92 93 91 92 94 95 93 94 92 89 93 91 96 96 96 87 94 94
94 100 100 99 98 98 98 93 92 92 94 93 92 91 92 89 90 92 93 93 93 93 92 90 90 89 95 98 98 90 92 92

GFSFLT1_sfc_rhum_105.txt.gz
RH
15 13 16 15 20 62 74 85 87 89 89 96 91 91 96 95 92 94 95 94 94 96 98 97 97 98 98 98 97 97 94 95
15 17 15 17 22 66 76 88 93 91 91 97 89 95 93 95 96 91 94 94 94 95 97 97 97 96 96 97 97 96 98 97
16 21 21 23 26 68 80 87 94 90 84 87 90 81 89 77 92 92 92 95 95 95 97 97 97 97 96 97 93 96 94 96
27 32 38 41 40 44 78 85 92 90 87 85 91 93 87 88 80 83 94 91 92 94 96 96 97 95 95 96 94 91 91 97
41 45 47 48 52 54 50 79 89 90 87 85 84 86 87 80 80 82 95 92 94 94 96 96 93 95 94 95 94 93 94 96
49 50 50 54 55 58 58 60 77 86 84 83 84 87 84 92 86 86 92 96 95 95 95 96 95 94 95 95 97 97 95 91
54 55 57 61 60 61 62 61 65 81 85 84 83 82 85 89 89 92 98 97 97 94 95 97 97 97 96 96 97 95 95 93
61 64 67 66 67 66 64 68 69 73 88 85 82 80 83 82 85 89 98 95 97 97 96 96 96 97 96 97 97 96 96 95
64 65 68 70 68 68 71 74 77 76 87 83 80 76 78 76 78 92 92 92 93 92 93 94 96 96 96 97 97 97 95 94
68 69 71 72 71 73 74 78 84 81 74 86 86 90 74 78 78 94 96 94 96 93 94 97 98 98 97 97 98 96 97 96
74 74 73 70 71 77 76 78 88 81 90 93 92 94 91 77 78 93 95 95 92 95 97 97 98 98 97 97 99 97 94 95
77 77 73 72 76 81 84 84 84 92 94 94 94 93 93 80 86 93 96 95 94 94 94 95 98 98 99 96 98 98 96 97
75 76 79 79 82 84 86 86 88 88 90 95 95 93 89 81 86 91 95 94 89 91 94 95 94 97 97 98 98 97 96 98
80 80 82 86 86 86 86 88 90 89 89 96 94 94 92 87 85 91 95 95 92 92 93 95 96 95 97 96 95 95 95 94
89 93 91 85 86 88 88 90 89 89 89 91 95 98 95 94 88 89 92 90 92 93 92 91 92 93 94 95 94 96 94 94
92 95 95 95 92 88 89 88 90 88 90 90 94 93 96 96 96 92 93 93 92 91 91 93 92 94 94 95 94 95 93 92
88 92 94 94 95 95 90 94 89 88 90 92 91 91 91 95 95 95 94 94 92 91 90 89 89 85 96 95 100 95 94 95
96 98 99 97 97 96 97 95 93 88 90 92 92 91 92 94 92 92 94 96 94 95 94 93 96 94 98 96 97 95 96 95
92 93 97 99 98 96 94 96 93 95 94 91 96 92 92 91 93 94 95 94 94 94 95 94 95 96 97 97 95 92 94 94

GFSFLT1_sfc_rhum_108.txt.gz
RH
17 18 16 15 40 66 77 84 85 88 95 96 96 95 97 97 96 97 96 96 94 96 97 96 96 97 97 96 94 96 94 94
17 16 20 19 36 69 76 85 89 90 97 98 96 93 97 98 98 95 96 96 96 95 96 97 97 97 95 94 95 96 98 97
17 21 36 46 44 65 78 85 94 88 83 88 91 88 93 92 97 96 95 96 95 96 96 97 97 98 99 94 94 98 96 96
50 56 64 65 69 75 89 91 94 86 80 92 97 98 97 96 96 98 97 96 96 95 96 96 97 97 97 97 96 93 96 97
59 65 68 69 71 68 67 92 94 92 92 93 91 90 93 84 81 88 91 95 96 96 97 97 97 97 95 95 95 94 93 94
67 66 63 66 69 72 70 70 76 81 96 92 93 86 83 94 91 89 89 94 94 94 96 97 97 97 95 93 94 95 93 92
66 64 62 68 68 71 70 74 71 72 80 91 88 90 91 94 93 90 87 88 95 95 95 96 95 94 95 94 94 94 95 92
74 75 75 72 71 74 72 77 79 77 80 76 89 88 88 90 92 90 95 96 97 98 97 98 97 95 94 95 96 97 95 96
80 77 76 75 73 76 80 78 78 78 83 77 83 85 90 86 89 90 93 95 95 95 94 96 96 97 97 97 97 97 97 98
79 78 77 76 78 80 83 79 78 79 86 83 75 88 91 88 87 92 94 93 96 96 94 95 95 96 95 97 98 98 98 97
78 78 78 78 79 80 82 78 81 80 88 89 79 89 90 90 88 94 95 94 95 96 96 96 96 97 96 97 94 97 98 97
80 78 76 76 78 80 84 84 84 85 89 93 96 96 97 93 90 93 93 94 96 96 96 97 98 97 97 98 98 97 98 98
83 83 82 81 82 84 85 87 88 87 87 90 96 96 97 96 96 94 92 95 95 96 94 94 94 96 98 97 98 98 96 97
85 86 88 88 88 84 86 88 91 88 85 89 91 94 97 97 96 97 93 96 93 96 94 95 94 96 98 98 97 98 98 94
84 88 92 89 89 89 87 90 88 87 86 89 92 93 94 97 96 94 93 92 92 94 94 94 96 96 98 96 97 98 97 97
87 92 93 94 92 91 88 87 90 87 86 90 92 90 90 92 96 97 96 96 95 93 95 95 94 95 94 98 96 97 98 98
86 91 91 92 94 91 90 89 88 88 87 91 92 90 88 92 94 96 96 96 94 93 93 92 93 89 98 98 100 97 96 97
95 95 96 94 96 94 95 92 86 87 90 89 88 91 92 94 93 95 96 97 96 96 96 95 97 97 98 98 100 95 96 97
89 93 94 94 92 91 90 87 87 89 91 89 91 90 93 92 96 98 98 95 96 95 96 96 96 95 97 97 96 94 95 96

GFSFLT1_sfc_rhum_111.txt.gz
RH
18 27 26 36 72 74 86 90 93 93 97 98 99 98 98 98 97 97 95 94 96 96 97 98 98 98 98 98 97 94 94 92
21 23 29 26 29 72 83 94 94 93 97 98 98 98 98 98 96 95 95 95 96 97 98 97 97 98 96 96 96 96 98 98
56 68 72 78 82 64 82 91 94 91 91 88 89 90 97 96 97 97 94 96 96 96 97 97 97 98 97 94 94 96 96 98
63 64 73 75 77 78 90 93 94 92 91 90 98 97 99 100 98 97 97 96 96 95 95 95 97 95 96 94 94 94 97 98
67 70 76 78 78 75 67 87 93 90 92 92 95 88 90 91 91 91 93 96 97 96 95 96 96 95 96 97 95 95 95 98
75 74 74 75 77 81 72 72 78 83 94 94 95 94 88 97 97 97 98 97 96 96 96 95 97 96 95 96 97 98 96 93
77 73 71 76 79 81 78 76 74 79 83 88 94 94 93 95 94 97 98 98 98 97 97 97 97 96 96 95 95 96 96 95
86 84 82 80 82 83 78 80 81 80 81 80 81 95 95 90 90 88 94 96 97 97 97 98 97 96 95 94 96 96 96 95
82 80 80 81 80 81 82 82 80 78 82 84 85 76 92 93 92 88 90 88 86 94 95 95 94 96 96 96 96 95 94 97
82 78 77 78 80 81 82 82 78 79 80 82 89 87 88 89 92 94 93 92 95 96 96 97 97 97 97 98 98 98 98 97
83 81 80 77 77 78 79 80 80 81 82 88 90 91 82 90 89 95 95 95 96 98 97 96 96 96 97 97 97 97 97 97
92 86 80 79 79 80 84 84 82 84 87 89 93 96 86 92 92 94 95 96 97 97 96 96 95 96 97 98 96 95 98 97
85 86 84 84 86 84 85 86 87 85 85 89 92 91 93 97 96 94 96 96 95 95 95 96 96 96 96 97 98 98 98 98
82 83 88 88 86 86 86 86 88 87 84 87 91 92 93 94 96 97 96 96 96 96 96 96 96 96 98 98 97 98 98 97
86 86 86 88 87 87 87 88 85 86 85 88 91 92 92 92 90 94 96 95 95 95 95 94 94 94 95 96 97 98 98 97
88 89 89 88 89 86 85 86 86 84 86 89 91 89 88 89 90 89 92 96 94 94 97 97 96 96 99 98 97 98 98 99
87 88 86 90 87 87 86 87 87 84 86 90 89 87 87 90 90 90 91 92 93 97 97 97 96 92 98 99 100 98 98 98
95 96 94 93 94 88 93 92 87 88 89 86 87 88 89 91 91 91 94 96 96 96 96 96 97 97 99 99 100 98 99 99
92 95 95 94 91 89 88 86 89 91 92 90 89 88 89 88 91 94 97 99 100 98 98 96 96 94 97 97 97 95 96 97

GFSFLT1_sfc_rhum_114.txt.gz
RH
19 28 47 61 76 78 87 93 95 95 94 95 95 96 95 97 98 98 97 97 96 97 99 98 97 97 97 98 95 94 97 95
51 63 64 38 53 80 86 95 96 93 95 95 92 94 93 96 97 96 96 96 97 96 98 99 96 96 95 94 93 93 98 96
65 73 80 83 87 81 81 95 97 92 88 86 90 86 88 91 93 98 96 96 96 96 97 98 96 97 96 94 96 97 96 98
72 72 81 84 87 86 85 96 96 95 91 91 98 97 99 99 96 98 97 96 96 95 96 97 97 95 97 97 96 94 98 99
77 78 82 86 86 78 80 86 95 94 92 91 92 91 92 90 90 92 93 97 96 94 96 96 96 96 96 96 94 94 93 97
86 83 79 82 81 78 79 72 78 84 90 91 94 93 93 97 97 92 94 97 96 95 96 96 96 96 95 95 97 97 95 94
80 79 79 82 83 78 73 74 78 80 86 88 93 92 93 98 97 96 93 95 95 96 94 94 93 94 95 96 96 96 96 96
82 83 81 79 80 79 78 77 79 78 83 85 88 93 92 93 95 94 96 98 97 97 97 96 96 96 96 94 96 97 97 97
88 83 81 81 80 80 79 79 80 80 82 86 86 86 88 94 93 92 95 95 93 90 95 96 91 95 96 96 96 97 96 97
90 86 83 82 82 82 82 81 80 81 82 86 88 92 90 85 94 94 96 96 96 97 95 96 94 94 96 97 98 98 97 97
88 88 84 83 82 81 82 80 81 80 81 87 88 91 93 90 86 95 94 96 97 97 97 96 94 94 96 97 97 97 98 97
94 88 89 80 80 81 85 83 82 83 85 87 90 90 90 94 86 93 94 95 96 97 96 96 96 94 98 98 98 98 98 98
98 96 92 92 84 82 85 86 85 84 85 86 89 89 88 91 93 96 95 95 95 95 96 97 97 97 97 97 97 96 96 95
87 92 89 85 84 84 84 86 87 85 84 86 88 90 90 91 91 90 93 97 97 97 97 98 97 96 97 96 95 96 96 94
86 87 88 86 83 85 86 88 86 84 84 88 90 90 90 90 89 89 90 91 95 98 97 96 96 96 96 97 97 97 97 96
89 91 90 89 85 86 86 87 87 85 85 87 90 88 87 87 89 88 88 90 89 90 95 97 96 98 98 98 96 97 97 98
88 89 89 89 85 86 87 88 88 85 86 89 86 85 86 89 89 90 89 89 90 91 93 93 94 92 98 99 100 97 98 99
94 95 94 93 90 86 93 90 85 86 88 86 87 86 86 88 88 90 93 95 93 95 94 94 95 96 97 98 100 99 99 99
92 96 95 95 90 87 87 85 87 90 91 90 89 88 89 87 88 92 94 95 98 98 98 96 95 96 97 97 97 95 97 97

GFSFLT1_sfc_rhum_117.txt.gz
RH
15 18 23 22 21 51 64 73 76 80 78 83 77 81 77 74 74 77 86 88 91 88 91 92 93 94 96 93 88 84 80 73
15 40 57 59 40 54 65 75 76 76 76 83 80 86 81 82 70 76 84 86 89 90 92 92 94 94 93 92 91 92 90 81
21 59 65 68 69 67 70 74 77 78 73 77 81 88 78 78 81 82 84 85 88 88 93 92 93 94 94 94 92 94 92 92
63 66 71 70 72 71 69 83 77 81 81 86 86 87 90 95 87 86 86 81 87 87 89 91 92 92 92 94 92 93 97 97
69 70 72 74 74 71 70 82 87 86 90 88 90 82 89 84 82 84 87 86 85 84 86 88 91 92 92 92 91 93 90 95
80 76 76 73 73 73 72 75 80 88 96 90 92 89 87 85 88 91 92 92 90 86 87 88 93 90 89 92 94 94 92 85
81 75 73 75 73 74 73 72 74 79 85 90 90 90 87 91 87 93 92 91 91 91 89 91 91 90 88 89 91 93 92 92
91 87 83 81 80 78 72 73 77 78 83 85 88 92 93 89 87 84 90 90 94 92 95 96 94 91 90 87 90 92 93 95
94 92 87 83 83 81 79 75 75 75 79 84 82 86 92 92 89 83 87 85 89 89 94 94 93 91 90 91 93 93 93 95
93 90 88 86 85 85 82 81 79 79 81 85 86 89 91 92 90 96 92 86 88 91 92 93 92 91 92 93 93 95 96 96
95 90 86 82 81 82 82 78 81 81 80 83 84 86 87 92 93 92 96 93 90 92 93 93 93 94 93 93 92 93 96 96
97 96 85 80 77 79 84 82 80 83 85 85 86 86 86 87 89 89 96 95 94 94 94 95 95 94 93 94 93 94 95 95
99 99 88 86 83 82 85 85 85 83 84 85 87 86 85 86 88 87 89 94 94 92 93 95 94 93 91 94 94 94 95 97
98 98 96 94 89 85 84 85 85 84 83 85 87 88 88 89 88 87 87 89 91 94 95 96 95 96 95 95 94 95 95 93
96 94 96 93 90 92 87 86 84 79 80 84 86 87 87 88 87 86 87 86 89 89 92 95 96 97 96 96 96 94 93 90
87 93 92 85 84 82 82 83 82 79 81 84 87 84 83 84 87 88 87 88 88 88 89 89 90 87 87 95 96 96 95 92
83 81 81 82 79 82 82 83 84 80 83 87 82 82 83 86 87 88 88 89 88 90 90 89 92 86 96 96 97 97 95 95
90 93 91 89 85 78 86 84 79 82 84 83 84 83 83 86 86 86 90 92 91 91 91 91 93 94 96 96 97 94 96 96
88 94 94 93 89 83 78 77 81 86 87 85 85 85 84 83 86 90 93 93 95 94 94 92 92 94 98 96 94 94 96 97

GFSFLT1_sfc_rhum_120.txt.gz
RH
13 13 12 10 10 16 19 22 52 60 60 61 55 54 54 49 49 56 77 85 86 84 83 85 87 85 86 89 78 62 60 59
12 15 15 15 18 30 27 25 42 56 56 56 52 54 52 50 47 53 64 84 86 86 85 88 88 87 86 88 85 78 72 66
18 16 17 37 43 45 39 31 31 51 53 49 47 51 50 48 48 52 59 80 85 81 86 86 88 88 87 88 92 87 82 79
44 42 45 50 51 53 47 47 32 49 59 55 50 52 52 55 53 52 66 70 81 84 84 86 88 87 88 88 89 88 87 88
65 65 66 64 64 64 57 62 72 65 75 63 65 57 62 62 56 55 66 73 66 79 79 85 87 87 84 87 84 88 83 92
84 78 73 72 71 72 69 74 86 94 81 76 77 62 56 57 60 66 74 81 72 71 74 80 83 85 83 84 90 90 90 81
92 85 81 81 82 78 75 76 84 91 94 90 87 89 71 66 73 76 83 84 87 84 70 79 83 81 82 85 87 87 89 86
95 95 91 90 90 87 80 75 80 89 93 91 90 96 93 81 74 75 85 88 92 89 80 84 84 85 80 86 88 85 84 85
96 99 91 91 91 88 87 81 80 79 84 86 86 88 89 90 86 84 73 82 84 84 89 87 84 85 85 82 85 82 82 85
97 96 90 90 92 88 92 87 82 80 81 80 83 84 87 91 90 91 93 87 84 85 93 94 93 92 88 86 84 88 87 87
93 96 90 87 87 88 88 83 84 82 80 80 80 82 82 84 88 91 91 93 94 91 92 95 91 93 93 93 89 91 93 92
96 94 93 81 80 82 86 82 79 81 82 83 84 83 83 84 86 85 87 90 95 96 93 92 92 93 97 98 97 94 94 92
97 97 94 85 82 80 82 86 85 83 82 83 86 85 83 85 87 85 85 85 90 95 92 91 94 93 93 97 96 94 94 94
97 96 96 94 89 85 80 81 82 81 78 81 84 85 85 87 86 85 84 84 84 87 90 95 93 94 95 95 95 93 94 91
98 96 97 95 95 95 84 79 77 74 75 77 84 85 84 84 84 84 86 84 84 85 85 86 87 86 87 90 93 95 93 93
90 94 96 96 92 87 75 78 76 75 75 77 80 80 79 80 84 84 84 85 82 82 83 86 87 86 86 93 90 93 97 96
77 78 80 88 87 80 76 77 79 72 74 78 76 74 74 83 81 82 83 85 84 84 84 88 91 87 96 96 96 93 93 98
88 91 89 87 87 76 83 79 75 76 76 74 74 74 76 80 81 84 89 89 87 88 88 87 90 91 94 95 95 90 93 95
83 90 89 87 81 78 72 72 76 84 86 82 80 78 76 76 80 86 92 94 96 95 93 88 89 88 92 92 93 89 93 94

GFSFLT1_sfc_rhum_123.txt.gz
RH
22 18 13 10 11 14 16 19 25 34 74 65 54 52 52 51 48 49 76 86 84 82 75 79 75 76 84 69 72 66 65 68
32 32 26 18 15 16 16 21 29 30 68 75 62 56 53 51 41 46 68 83 88 84 79 78 83 79 78 82 78 71 68 65
45 44 43 36 42 36 32 31 34 35 26 65 68 51 47 44 40 46 56 75 86 80 83 84 85 79 85 84 83 80 74 72
66 64 61 53 54 55 45 44 36 39 41 52 68 49 46 44 41 43 53 65 84 82 83 84 87 82 85 82 84 81 77 74
67 80 81 69 66 63 60 55 45 43 60 65 69 52 44 43 43 42 47 59 75 82 83 85 86 84 84 78 78 80 80 89
66 76 85 82 75 74 73 69 65 70 78 86 68 70 45 44 44 49 52 61 62 74 80 85 86 85 84 81 82 79 76 80
60 66 78 92 87 85 84 77 77 85 91 81 63 73 58 59 52 53 55 66 62 66 72 82 84 84 85 84 83 82 83 82
75 79 94 95 95 91 91 82 82 88 94 94 95 79 76 70 88 77 80 87 78 67 69 76 82 84 84 83 86 85 82 87
91 100 97 96 96 96 92 89 88 90 93 94 94 95 94 89 96 98 91 84 85 78 76 80 81 83 84 85 85 86 85 88
99 97 96 96 99 99 96 91 88 90 92 92 94 93 92 97 95 96 96 93 90 87 85 88 90 90 88 87 91 81 84 87
97 96 97 96 99 93 92 90 88 89 91 92 93 93 90 94 94 93 92 92 90 94 90 87 93 96 93 92 92 90 92 90
97 97 97 96 91 94 88 82 83 86 86 87 90 92 92 93 94 92 89 88 91 94 95 94 92 93 97 98 97 94 93 96
99 97 97 95 94 92 95 96 88 89 82 82 84 82 91 90 90 88 87 86 87 89 91 92 92 92 94 98 97 94 93 91
99 96 96 96 95 96 92 91 97 95 87 81 82 84 84 85 85 84 83 84 84 84 86 90 89 88 88 92 94 95 96 96
97 97 97 97 95 95 93 85 81 82 81 77 81 83 84 84 81 82 84 82 84 84 84 85 86 85 86 87 86 90 94 95
89 96 97 97 97 95 95 80 78 72 74 76 78 75 75 78 81 82 83 84 83 82 83 85 86 85 87 92 88 91 93 94
76 80 79 90 79 76 73 75 78 74 74 78 75 75 76 80 84 83 84 85 85 85 85 85 87 82 92 93 93 90 89 91
83 88 86 86 84 76 78 73 74 80 81 78 76 74 75 78 74 82 88 91 90 91 90 88 87 86 91 91 91 89 91 92
71 93 89 84 77 77 77 74 71 80 83 82 78 76 76 78 80 84 88 89 92 92 91 90 90 86 89 90 87 85 90 90

GFSFLT1_sfc_rhum_126.txt.gz
RH
35 38 41 42 45 51 51 48 40 48 48 72 82 82 77 69 73 75 77 85 84 81 77 79 82 80 81 82 85 82 84 82
34 42 47 51 52 55 54 59 56 37 30 70 81 84 80 77 65 70 78 81 86 80 78 90 88 85 85 88 89 86 90 87
41 44 51 59 61 60 60 58 58 57 50 42 73 80 80 71 64 63 73 79 83 80 78 84 86 82 89 85 82 89 91 88
50 48 52 56 61 65 63 64 62 63 62 52 52 69 81 79 68 61 74 80 84 84 79 76 83 79 88 85 84 84 89 88
52 55 53 56 60 63 69 67 67 64 66 68 74 83 89 76 69 57 72 82 84 85 81 82 76 83 80 86 81 84 79 91
61 61 62 58 60 68 76 74 74 75 77 76 85 86 85 82 67 58 63 82 83 84 83 86 84 82 82 83 86 86 83 87
66 66 70 74 74 80 82 86 80 80 82 86 88 88 87 83 69 58 60 75 86 84 82 88 86 82 83 84 82 88 82 85
75 82 88 88 86 87 90 91 88 84 89 91 92 92 94 87 76 60 61 74 84 87 86 92 89 85 84 85 87 87 85 85
86 98 97 93 86 89 96 95 92 87 90 94 91 92 96 97 95 94 91 92 85 85 86 86 90 89 89 90 90 92 89 91
92 98 97 91 97 99 98 96 93 89 92 93 93 94 95 97 97 97 97 95 94 98 95 92 91 89 91 94 93 94 94 93
92 97 96 94 98 99 98 97 96 93 92 91 91 93 94 96 95 97 98 96 97 97 97 96 95 98 98 94 95 92 93 93
96 96 98 98 97 100 100 98 98 96 92 90 90 92 93 93 94 96 98 95 92 93 93 95 96 94 96 99 97 95 94 93
98 98 95 98 98 98 100 99 96 98 90 89 92 91 91 93 93 94 93 94 94 92 90 90 89 88 90 93 96 96 99 99
95 96 95 97 97 99 99 98 95 91 90 88 92 96 92 93 92 90 89 90 91 88 89 90 89 90 90 89 89 92 94 97
96 96 97 97 98 97 97 96 88 86 86 93 96 96 96 94 93 93 92 89 89 88 87 87 89 88 90 90 91 93 92 91
82 91 94 92 90 91 93 94 84 79 85 90 94 98 93 95 95 93 92 93 90 85 87 87 86 87 89 93 89 89 89 89
70 73 77 88 82 79 75 75 80 78 79 82 83 89 88 86 88 88 86 88 89 88 87 86 88 83 91 89 87 87 86 87
82 86 83 81 80 74 81 74 74 76 80 79 79 78 79 82 80 83 87 88 86 88 88 87 88 87 89 88 86 85 88 90
68 90 87 82 74 73 73 72 74 81 81 80 78 78 76 75 76 82 85 84 89 89 88 86 88 84 86 87 86 85 88 88

GFSFLT1_sfc_rhum_129.txt.gz
RH
40 42 43 45 49 52 55 58 62 62 65 65 72 89 90 86 81 89 90 91 91 88 94 92 90 90 90 89 90 95 94 91
44 46 47 48 50 52 55 61 64 65 66 70 77 80 79 92 84 76 80 88 92 88 94 93 91 90 87 86 93 92 96 94
51 52 53 54 55 54 55 58 65 66 66 67 73 78 80 80 86 78 82 81 91 87 85 90 89 88 90 91 89 97 95 96
61 59 60 60 60 60 59 59 65 70 69 68 70 76 82 89 82 86 77 82 83 87 82 85 94 90 91 89 92 88 94 97
65 66 66 67 68 67 65 68 70 70 75 79 85 90 91 87 86 81 81 78 83 84 78 79 87 88 93 91 83 91 92 96
72 72 71 71 72 71 70 70 74 74 80 80 77 81 84 87 84 81 78 84 82 82 79 77 74 80 83 86 82 78 87 86
69 74 75 79 79 85 79 77 82 84 84 82 88 91 93 89 86 84 82 83 86 84 83 79 78 82 81 81 82 83 80 85
80 86 87 84 91 95 95 95 95 95 92 87 89 92 93 91 88 86 86 85 80 90 86 84 84 82 84 83 84 88 86 84
87 90 89 89 96 97 96 95 95 95 93 90 91 92 95 93 96 96 94 93 91 90 89 88 86 86 88 89 91 90 90 92
91 90 88 92 98 99 97 95 95 95 95 90 91 92 95 97 96 98 97 97 91 94 91 93 91 91 92 94 94 96 95 93
91 91 90 96 99 99 94 92 96 96 96 92 91 92 92 94 92 96 97 98 96 97 96 97 96 95 93 95 96 96 97 96
94 93 92 94 97 96 97 97 98 99 97 96 94 94 90 90 93 93 95 96 96 97 96 93 94 95 96 98 98 97 96 95
95 95 93 92 95 97 98 98 99 100 100 100 97 91 91 92 93 92 92 94 95 96 93 93 95 95 94 95 96 96 98 97
91 94 95 96 95 97 98 99 99 100 100 100 94 91 91 93 95 96 95 92 91 94 92 93 94 94 94 94 93 92 92 94
86 88 91 90 88 90 94 95 98 99 97 87 93 94 91 90 89 96 99 97 98 96 97 96 94 90 91 91 91 92 90 89
81 87 89 87 85 87 79 77 77 80 86 87 88 88 90 88 89 90 92 96 99 97 93 93 93 91 91 94 90 90 89 88
72 75 81 84 78 74 77 75 76 75 77 81 80 80 80 90 94 94 90 90 88 88 90 89 92 88 92 88 85 87 88 89
87 90 89 83 81 77 81 76 75 75 78 77 78 78 81 81 80 85 87 88 88 88 89 87 88 87 88 88 89 87 89 91
77 86 90 86 77 76 84 82 75 80 81 79 77 79 82 82 82 84 88 90 89 89 89 87 86 83 86 87 85 85 88 89

GFSFLT1_sfc_rhum_132.txt.gz
RH
50 52 51 51 52 52 52 52 56 60 68 67 67 70 84 84 85 92 83 81 88 92 88 90 93 94 95 92 92 93 92 88
53 53 54 55 55 56 56 60 59 61 65 72 73 78 79 82 85 79 84 81 77 89 91 93 90 92 90 90 93 93 95 96
59 59 60 61 63 64 64 63 62 64 66 69 74 76 79 81 81 80 79 87 82 81 87 92 90 89 91 91 90 96 93 94
67 64 66 67 70 70 68 70 70 68 69 72 73 74 83 86 84 87 85 86 92 82 89 92 92 90 92 90 85 85 91 98
67 69 72 74 73 71 74 69 68 67 68 72 78 80 84 82 88 88 86 78 84 87 84 88 93 91 91 89 83 84 82 89
75 76 75 74 72 76 71 72 71 73 76 80 81 85 77 72 78 88 86 84 80 81 88 93 88 92 90 88 88 84 84 83
78 76 76 72 72 73 74 81 81 78 88 93 88 89 81 78 80 90 86 87 87 87 80 90 91 90 92 90 88 86 87 85
86 88 85 79 81 81 83 86 90 80 91 95 95 91 91 93 90 87 92 89 89 91 92 95 95 90 90 89 86 82 84 86
88 90 89 86 86 88 93 96 95 91 95 96 94 89 93 94 90 93 90 92 95 95 91 91 94 90 84 88 89 85 83 84
91 92 90 88 94 98 98 97 95 85 96 96 95 90 92 95 96 97 98 95 93 94 90 92 94 88 86 83 89 92 90 87
92 92 91 88 95 99 96 97 93 89 89 96 96 95 91 92 94 97 97 98 95 93 93 91 91 97 92 92 92 93 93 95
93 92 91 88 89 91 92 96 95 97 96 96 96 97 95 93 93 93 94 94 93 91 89 94 94 96 98 97 97 98 96 95
91 92 91 89 88 89 93 93 96 98 99 99 97 97 98 96 95 93 91 92 92 92 91 92 92 95 96 96 97 96 96 96
92 90 90 89 87 89 86 96 96 98 99 100 99 100 99 98 96 92 90 89 89 90 91 94 95 96 95 93 94 95 95 94
92 91 90 88 84 86 82 82 86 99 99 100 100 99 100 99 92 92 92 90 92 92 92 96 97 96 94 94 94 97 93 93
87 92 89 88 83 79 76 74 74 73 79 90 99 100 99 98 94 90 87 88 89 90 91 93 98 100 100 97 98 100 98 96
76 85 76 82 76 76 74 74 76 72 72 76 78 80 81 90 93 87 87 87 87 88 92 93 96 97 100 100 100 100 100 98
83 91 91 79 76 74 82 78 69 77 74 70 66 76 80 81 82 85 85 87 89 91 92 92 93 95 92 90 97 96 95 96
75 87 86 88 73 72 76 70 73 76 79 74 68 65 74 78 79 85 90 87 87 90 90 88 87 80 84 86 85 83 87 88